GFSMW_850_dewp_078.txt.gz
Dewpoint
-1 -2 -2 -1 -2 3 6 9 11 12 12 12 13 13 13 13 13 13 12 12 12 11 11 10 10 10 9 9 9 10 11 11 11 10 9 10 10 10 9 8 6 6 6
-2 -2 -2 -3 -1 -1 1 3 7 10 10 12 12 12 12 13 13 13 12 12 11 11 12 11 11 11 10 10 10 11 11 11 11 11 10 10 10 9 9 8 7 6 6
-3 -3 -3 -2 -3 -1 -1 0 2 4 4 7 10 10 11 12 13 13 12 12 11 11 11 11 10 11 11 12 11 11 11 11 11 11 11 10 9 9 8 7 7 7 6
-2 -3 -3 -2 -2 -2 -2 -2 -1 1 2 2 2 4 7 8 7 9 10 10 10 10 10 10 10 11 12 12 12 12 12 12 12 11 11 11 10 9 8 8 7 7 6
-2 -2 -3 -3 -3 -3 -3 -2 -1 -1 -0 0 1 1 2 3 4 6 7 8 9 9 8 10 10 10 10 10 11 12 11 11 11 11 10 10 11 10 9 8 9 8 7
-2 -2 -2 -2 -2 -3 -3 -3 -4 -4 -4 -2 -1 -0 1 1 3 4 4 4 5 8 11 10 9 8 6 10 10 12 11 10 10 11 11 10 10 10 10 9 9 9 8
-1 -1 -0 0 0 -1 -1 -2 -2 -3 -3 -3 -2 -1 -0 1 1 2 2 3 4 7 8 10 10 9 10 10 10 10 10 9 9 9 10 9 10 9 10 9 9 9 8
-0 0 1 2 2 1 1 0 -0 -1 -2 -2 -3 -3 -3 -3 -2 -1 -1 -0 2 9 10 10 10 9 9 10 10 9 9 9 9 9 8 8 8 8 9 9 9 8 8
1 2 3 3 2 2 2 2 1 1 0 -0 -1 -2 -2 -3 -3 -2 -2 -0 2 6 9 10 9 10 10 9 9 9 8 6 8 8 8 7 7 8 8 9 8 8 7
3 4 4 3 3 3 3 3 2 2 2 2 1 1 1 0 0 0 -0 -0 1 3 6 8 9 9 9 9 8 8 3 1 3 6 4 7 5 6 5 7 7 7 6
4 4 4 3 4 3 3 2 2 2 2 2 2 2 2 2 1 1 1 1 1 1 2 3 3 3 3 2 1 0 -0 0 1 2 3 5 5 5 4 5 5 6 5
4 3 3 3 3 3 2 2 2 2 1 1 2 2 2 2 2 2 2 1 1 1 0 0 -0 -1 -1 -1 -1 -0 0 1 2 3 3 4 4 4 4 4 5 4 3
3 3 3 4 3 2 1 1 1 1 1 1 1 2 2 2 2 1 1 1 1 0 0 0 -0 -0 -0 0 1 2 2 3 3 3 3 3 3 4 4 4 3 3 2
3 3 4 3 2 2 1 1 1 0 0 1 1 2 2 2 2 1 1 1 1 1 1 1 1 1 2 2 2 3 3 3 3 2 2 2 3 3 2 1 -0 -0 0
3 3 3 2 2 1 1 1 0 0 1 1 1 2 2 2 2 2 2 2 2 2 2 3 2 2 3 2 3 3 2 2 2 2 1 1 0 -0 -1 -1 -0 -0 0
2 2 2 2 2 1 1 0 0 1 1 1 1 1 2 2 2 2 2 3 3 2 2 1 1 1 1 1 0 -0 -0 -0 -1 -1 -1 -1 -1 -1 -1 -1 -1 -1 -2
2 2 2 2 2 1 1 0 0 1 1 0 1 1 1 2 2 3 2 1 1 0 -0 -0 -0 -1 -1 -1 -1 -1 -1 -1 -1 -1 -1 -1 -2 -1 -2 -5 -11 -21 -25
2 2 2 1 1 1 0 0 0 0 0 0 0 1 1 1 2 1 0 -0 -1 -1 -1 -1 -1 -1 -2 -1 -2 -2 -3 -4 -4 -5 -9 -16 -20 -23 -24 -24 -23 -20 -18
3 3 2 1 1 0 0 0 0 0 0 0 0 0 1 1 0 -0 -1 -1 -1 -1 -2 -2 -2 -5 -8 -12 -21 -22 -23 -23 -23 -23 -23 -23 -24 -24 -27 -27 -27 -23 -19
2 2 1 0 -0 -0 0 0 0 0 0 0 0 0 1 -0 -1 -1 -1 -2 -2 -2 -5 -17 -20 -22 -23 -24 -24 -25 -25 -25 -26 -26 -25 -25 -25 -25 -25 -25 -25 -24 -21
1 1 0 -0 -1 -0 0 0 0 -0 -0 0 0 -0 -1 -1 -1 -2 -2 -2 -4 -15 -19 -20 -22 -23 -24 -27 -29 -29 -28 -27 -27 -26 -24 -23 -24 -24 -24 -25 -24 -22 -21
1 0 -0 -1 -1 -0 -0 -0 -0 -0 -0 0 -0 -1 -1 -2 -2 -2 -2 -11 -17 -19 -21 -22 -24 -25 -27 -27 -26 -26 -26 -26 -25 -23 -23 -23 -24 -24 -24 -23 -22 -20 -17
1 0 -0 -1 -1 -0 -1 -1 -1 -1 -1 -0 -1 -1 -2 -2 -2 -4 -13 -18 -20 -22 -23 -24 -25 -27 -27 -25 -24 -24 -25 -25 -25 -24 -24 -24 -24 -24 -23 -21 -18 -14 -12
1 1 -0 -1 -1 -1 -1 -2 -2 -1 -1 -0 -2 -2 -2 -2 -5 -13 -18 -19 -21 -22 -24 -26 -27 -28 -27 -25 -24 -25 -26 -26 -25 -25 -25 -24 -24 -23 -22 -18 -15 -13 -12
1 1 -0 -1 -1 -1 -2 -2 -2 -1 -1 -1 -2 -2 -2 -7 -14 -16 -18 -20 -21 -23 -25 -27 -29 -29 -28 -27 -27 -27 -27 -26 -25 -25 -25 -24 -23 -22 -20 -16 -13 -12 -12
1 1 -0 -1 -1 -1 -1 -1 -2 -1 -1 -1 -2 -2 -4 -13 -15 -17 -19 -21 -22 -23 -25 -30 -30 -29 -28 -28 -27 -27 -27 -27 -26 -26 -25 -24 -24 -23 -21 -15 -12 -12 -12

GFSMW_850_dewp_081.txt.gz
Dewpoint
-1 -1 -1 2 2 5 7 11 12 13 14 14 13 13 13 13 12 12 11 12 12 12 11 10 10 10 10 9 9 9 9 10 11 12 11 10 10 10 9 10 9 9 9
-1 -1 -1 -2 -0 2 4 6 10 12 13 13 13 14 13 13 13 13 12 12 12 11 11 11 10 11 11 11 10 10 10 10 11 12 11 11 10 10 9 9 9 9 9
-2 -2 -3 -2 -3 -1 1 2 5 7 9 10 11 11 12 13 13 13 13 11 10 11 11 11 11 12 12 12 12 11 11 11 11 11 11 10 9 9 9 8 8 8 8
-1 -2 -3 -3 -3 -2 -1 -0 3 5 5 5 5 9 12 12 11 11 11 11 11 11 11 11 11 11 12 12 12 11 11 11 11 11 11 10 10 10 10 9 9 9 8
-2 -3 -3 -2 -2 -2 -2 -1 -1 0 2 2 2 3 3 4 5 7 8 9 11 11 12 12 10 9 10 10 10 10 12 10 10 10 9 10 10 11 10 9 10 9 9
-1 -2 -2 -3 -3 -2 -2 -2 -2 -2 -1 -1 -1 -0 0 1 1 2 4 5 6 7 8 9 9 10 10 9 8 9 10 10 10 11 10 10 10 10 10 10 9 9 8
-1 -2 -2 -2 -2 -2 -3 -3 -3 -3 -3 -3 -3 -3 -2 -0 -0 0 2 2 3 3 5 6 9 8 9 9 8 9 10 10 8 8 9 9 9 9 10 10 9 9 9
-2 -1 -1 -1 -1 -1 -1 -2 -2 -2 -2 -2 -2 -2 -2 -2 -2 -1 0 1 1 2 2 3 7 10 9 9 9 9 8 9 9 8 8 8 8 7 7 8 8 8 7
0 0 1 1 1 1 1 1 1 0 -0 -1 -1 -1 -2 -2 -2 -2 -2 -2 -1 -0 3 7 10 10 10 10 9 8 9 9 9 8 6 7 7 7 8 8 7 6 6
2 3 2 2 2 2 2 2 2 2 1 1 1 1 1 0 -1 -1 -1 -1 -0 1 4 7 9 10 10 9 9 9 8 7 7 3 4 6 7 5 7 5 5 5 6
2 3 3 3 3 3 3 3 2 2 2 2 2 2 2 2 1 1 1 1 1 1 3 5 6 8 8 8 8 8 7 4 1 1 2 3 2 4 3 4 4 3 4
3 4 4 3 3 3 3 2 2 1 1 1 1 1 1 2 2 2 2 2 1 1 2 2 3 3 2 0 -1 -1 -1 -0 0 1 2 2 3 3 3 3 3 3 3
4 4 3 3 3 3 2 1 1 1 1 1 1 1 1 2 2 2 2 1 1 1 1 1 1 0 -0 -1 -1 -0 0 1 2 2 2 3 3 3 3 3 3 3 3
3 3 3 3 3 3 2 1 1 1 0 0 0 1 1 1 2 2 1 1 1 1 1 1 1 1 1 1 1 2 2 2 2 2 2 2 2 2 2 1 1 1 1
3 3 3 3 3 2 2 1 1 0 0 0 1 1 1 2 2 2 2 2 2 2 2 2 2 2 2 2 2 3 3 2 2 2 1 1 0 -0 -1 -0 -0 -0 -0
3 3 3 3 3 2 1 1 1 0 0 1 1 1 1 1 2 2 2 2 2 3 2 2 2 2 2 2 1 1 1 1 -0 -1 -1 -0 -1 -1 -1 -1 -1 -1 -1
2 2 2 2 2 2 1 1 1 0 1 1 1 1 1 1 2 2 2 2 2 1 1 1 0 -0 -1 -1 -1 -1 -1 -1 -1 -1 -1 -1 -2 -3 -4 -7 -13 -19 -23
0 1 2 2 2 2 1 1 0 0 0 0 0 0 1 1 2 2 1 1 0 -0 -1 -1 -1 -1 -1 -1 -2 -4 -7 -11 -15 -17 -20 -23 -24 -24 -24 -23 -22 -22 -21
-1 0 2 2 2 1 1 0 0 0 0 0 0 0 1 1 1 1 0 -1 -1 -1 -1 -1 -2 -2 -10 -21 -23 -24 -24 -25 -26 -26 -27 -26 -26 -25 -27 -27 -27 -25 -22
2 3 3 2 1 1 0 0 0 0 0 -0 0 0 0 1 1 -0 -1 -1 -1 -2 -2 -7 -16 -22 -24 -25 -26 -28 -29 -29 -29 -29 -28 -26 -26 -25 -24 -26 -26 -26 -25
1 2 2 1 1 0 -0 -0 0 0 0 -0 -0 0 0 0 -0 -1 -1 -2 -2 -5 -17 -21 -23 -24 -27 -29 -31 -31 -30 -29 -29 -27 -26 -25 -25 -25 -26 -26 -26 -25 -25
2 1 1 1 0 -0 -0 -0 0 0 -0 -0 -0 -0 -0 -1 -1 -2 -2 -2 -8 -18 -19 -21 -24 -26 -28 -29 -29 -29 -29 -29 -28 -26 -26 -25 -25 -25 -25 -25 -24 -24 -22
1 1 0 -0 -0 -1 -1 -0 -0 -0 -1 -1 -0 -0 -1 -1 -2 -2 -2 -11 -16 -18 -21 -24 -26 -27 -28 -27 -27 -28 -29 -29 -28 -26 -27 -27 -26 -25 -25 -24 -23 -20 -16
1 1 0 0 -0 -1 -1 -0 -1 -1 -1 -1 -0 -1 -1 -2 -2 -2 -9 -17 -20 -22 -23 -25 -27 -29 -28 -27 -27 -28 -27 -27 -27 -27 -26 -26 -26 -25 -24 -22 -19 -17 -14
1 1 1 0 -0 -1 -1 -1 -1 -2 -1 -1 -0 -1 -2 -2 -2 -8 -16 -19 -20 -21 -23 -26 -28 -28 -28 -28 -29 -28 -28 -28 -28 -29 -27 -26 -25 -25 -23 -22 -19 -15 -13
1 1 1 1 -0 -1 -1 -1 -2 -2 -2 -1 -1 -2 -2 -2 -5 -13 -17 -19 -20 -22 -25 -27 -30 -30 -29 -29 -29 -28 -28 -28 -28 -27 -26 -26 -26 -25 -25 -23 -19 -15 -13

GFSMW_850_dewp_084.txt.gz
Dewpoint
1 2 6 8 7 7 7 10 13 13 14 13 14 14 13 12 12 12 12 11 11 12 12 11 10 10 10 10 10 10 10 10 10 10 10 10 11 11 10 10 9 9 9
2 -0 -0 2 5 4 6 9 12 13 14 14 14 13 12 13 13 12 12 12 11 11 11 10 10 11 11 11 11 11 11 11 10 10 11 11 9 9 9 9 9 8 8
1 1 0 -1 -2 0 2 5 9 12 13 13 13 13 13 13 13 13 13 11 10 10 11 11 11 11 12 12 12 12 12 11 11 11 11 11 9 9 8 8 8 8 8
1 1 -1 -1 -2 -2 -1 1 4 9 11 12 12 12 12 11 11 11 11 12 12 11 11 12 12 12 12 11 11 11 12 12 11 10 10 10 10 11 10 10 9 10 9
-1 -1 -2 -2 -3 -3 -2 -1 1 3 6 8 10 11 9 9 11 12 11 10 10 11 11 10 10 10 10 10 9 10 11 11 12 11 11 9 10 11 10 10 9 9 9
0 0 -2 -2 -2 -2 -1 -0 -0 0 2 5 6 4 3 3 3 4 5 6 7 8 9 10 9 10 9 9 8 10 9 9 10 9 9 11 10 10 9 10 8 9 8
-1 -0 -2 -2 -2 -2 -2 -2 -2 -2 -2 -2 -2 -1 -1 -1 -1 -0 0 1 2 3 4 5 6 7 9 9 8 10 9 9 9 9 8 7 8 8 8 8 7 8 8
-0 -0 -1 -2 -2 -2 -2 -3 -3 -3 -3 -3 -3 -3 -4 -4 -3 -2 -1 0 1 2 2 3 3 4 10 10 9 10 9 10 9 8 8 8 7 7 7 7 8 7 6
-1 -1 -1 -1 -1 -1 -1 -1 -2 -2 -1 -2 -2 -2 -2 -2 -2 -2 -2 -2 -2 -2 -1 -1 -0 2 5 11 10 9 9 8 8 8 7 7 7 5 6 7 7 7 6
-1 0 1 1 1 1 0 0 1 0 0 -0 -0 -0 -0 -0 -1 -1 -1 -1 -1 -1 -0 3 5 8 10 9 9 8 9 8 8 6 6 4 2 4 6 6 5 5 5
1 3 3 3 2 2 2 2 2 2 2 2 2 2 2 1 1 1 1 1 1 1 1 3 6 9 9 8 8 8 9 8 7 4 2 1 1 2 3 3 2 3 3
3 3 3 3 3 3 3 3 2 2 1 1 1 1 1 1 1 2 2 1 2 1 2 2 3 4 5 5 6 5 4 2 1 -0 0 1 2 2 3 3 3 3 3
3 3 4 4 3 3 3 2 1 1 1 1 1 0 0 1 1 1 1 1 1 2 2 1 1 1 1 1 0 -0 0 0 0 1 2 2 3 3 3 2 2 2 3
4 4 4 3 3 3 2 1 1 1 1 0 0 -0 0 0 1 1 1 1 1 1 1 1 1 1 1 1 1 1 1 1 2 2 2 2 2 2 2 1 1 1 0
4 4 3 3 3 3 2 1 1 1 1 0 0 0 1 1 1 1 2 2 2 2 1 1 1 1 1 2 2 2 3 3 2 2 1 1 1 1 -0 -0 -0 -0 -0
4 3 3 3 3 3 2 2 1 1 1 0 1 1 1 1 1 2 2 2 2 2 2 2 2 2 2 2 2 2 2 2 1 0 0 0 -0 -1 -1 -1 -1 -1 -2
3 3 3 3 3 3 2 2 1 1 1 1 1 1 0 0 1 2 2 2 2 2 2 1 1 1 1 1 0 -0 -0 -1 -1 -1 -1 -2 -4 -6 -11 -16 -22 -23 -24
2 2 2 2 3 2 2 1 1 1 1 1 1 0 0 0 1 1 1 1 2 1 1 -0 -1 -1 -1 -1 -1 -1 -3 -8 -15 -21 -25 -25 -24 -24 -24 -25 -25 -25 -24
1 1 1 1 2 2 2 1 1 1 0 0 0 0 0 1 1 1 1 1 0 -1 -1 -1 -1 -1 -2 -8 -18 -23 -26 -27 -27 -27 -27 -27 -27 -28 -28 -28 -28 -27 -25
-2 -2 -0 1 2 2 2 1 1 0 0 0 0 -0 0 0 1 1 0 -1 -1 -1 -1 -2 -3 -12 -23 -24 -26 -28 -29 -29 -29 -29 -28 -28 -28 -27 -27 -27 -28 -28 -27
1 2 2 3 2 2 1 1 0 0 0 0 -0 -0 -0 0 1 0 -1 -1 -1 -1 -2 -10 -20 -23 -26 -29 -31 -30 -30 -29 -30 -28 -27 -27 -28 -28 -27 -28 -28 -27 -27
2 1 2 1 1 1 0 0 -0 -0 0 0 -0 -0 -0 -0 -0 -1 -1 -1 -2 -4 -17 -21 -22 -25 -27 -29 -29 -30 -30 -31 -29 -28 -28 -28 -29 -28 -28 -28 -28 -27 -24
2 1 1 1 1 0 -0 -0 -0 -0 0 -0 -0 -0 -0 -0 -1 -1 -2 -2 -5 -18 -19 -21 -24 -26 -27 -27 -27 -28 -30 -29 -29 -29 -30 -29 -29 -28 -27 -26 -26 -24 -20
1 1 1 1 0 0 -0 -1 -0 -0 -0 -0 -1 -0 -0 -1 -1 -2 -2 -3 -15 -17 -20 -23 -25 -27 -27 -27 -27 -27 -27 -29 -29 -29 -29 -28 -28 -27 -27 -25 -23 -21 -18
1 1 1 1 1 -0 -1 -1 -0 -1 -1 -1 -1 -1 -1 -1 -2 -2 -3 -11 -16 -19 -22 -24 -25 -26 -28 -28 -28 -29 -29 -29 -30 -30 -28 -27 -27 -27 -27 -25 -24 -21 -17
1 1 1 2 1 -0 -1 -1 -1 -1 -1 -1 -1 -1 -1 -1 -2 -2 -6 -16 -18 -20 -21 -23 -26 -28 -29 -29 -29 -30 -30 -30 -30 -29 -28 -27 -28 -28 -27 -26 -25 -24 -20

GFSMW_850_dewp_087.txt.gz
Dewpoint
3 2 2 9 8 8 9 9 9 9 10 12 13 13 13 13 13 12 12 12 11 11 11 11 11 10 10 10 10 10 10 10 10 10 10 10 10 10 9 9 8 8 9
3 2 2 4 8 8 6 4 4 6 2 9 10 12 13 12 12 12 12 12 12 11 11 11 11 11 11 11 11 11 11 11 11 11 11 11 10 9 8 7 7 8 8
3 3 2 2 0 1 4 2 4 5 7 8 11 12 13 13 12 13 12 12 10 10 11 11 11 11 11 11 11 12 12 12 12 11 11 11 10 10 9 9 8 9 9
3 2 2 1 0 -1 -2 1 1 6 8 9 11 12 12 12 12 12 12 12 12 11 12 12 11 11 11 11 11 11 11 12 12 11 10 10 11 11 10 9 9 9 9
3 2 1 1 1 -0 -1 -2 0 3 6 9 10 10 12 12 11 11 11 12 12 11 11 10 10 10 10 10 9 10 10 10 11 12 11 11 10 11 10 10 9 8 7
1 1 3 1 -1 -2 -2 -2 -2 0 3 7 9 9 10 10 9 7 6 8 11 10 9 8 8 9 9 10 11 10 8 9 11 10 9 9 9 9 10 9 8 8 7
1 0 1 1 -0 -2 -2 -2 -1 0 4 6 7 7 7 5 2 1 1 1 1 2 3 6 8 8 7 7 9 10 9 9 9 9 9 8 8 7 8 8 8 8 7
-0 -0 -0 0 -0 -2 -2 -1 -1 -1 -1 -1 -1 -2 -2 -2 -2 -2 -2 -3 -2 -1 1 2 3 4 5 6 9 11 9 10 10 10 10 8 7 8 7 8 8 7 6
-3 -1 -0 -0 -2 -2 -2 -2 -2 -2 -2 -3 -3 -3 -3 -4 -4 -4 -3 -3 -2 -1 -0 0 1 1 2 3 10 11 10 8 9 9 8 7 8 7 7 6 6 5 6
-3 -3 -1 -1 -1 -1 -1 -1 -1 -1 -1 -2 -2 -2 -2 -2 -3 -3 -3 -3 -3 -3 -3 -2 -2 -0 4 8 10 11 9 10 8 8 8 8 6 6 3 5 5 6 5
-2 -1 0 1 1 1 1 1 0 -1 -1 -1 -0 0 0 1 1 0 0 0 0 -0 0 0 2 7 9 9 9 9 8 7 8 8 7 4 3 1 2 3 3 3 2
0 1 2 3 3 3 2 2 2 2 1 1 1 1 1 1 1 2 2 1 1 2 2 2 2 4 7 8 8 8 8 8 8 8 5 1 0 1 1 2 2 3 3
3 3 3 3 2 2 2 3 2 2 1 1 1 1 1 0 0 1 1 1 1 1 2 2 2 2 3 3 4 4 3 2 1 0 -0 -0 1 1 2 2 2 2 3
3 4 3 3 3 3 3 2 2 1 1 1 1 0 -0 -0 -0 0 0 1 1 1 1 1 1 1 1 1 1 1 0 0 0 0 1 1 1 2 2 2 1 1 1
3 3 3 3 3 3 3 2 1 1 1 1 0 0 0 0 0 1 1 1 1 1 1 1 1 1 1 1 1 1 1 1 2 2 2 1 1 1 0 -0 0 -0 -0
3 3 4 4 3 3 3 2 1 1 1 1 1 1 1 1 1 1 1 1 2 2 2 2 2 1 2 2 2 2 2 3 2 2 1 1 0 -0 -1 -1 -1 -2 -4
3 3 3 3 3 3 3 2 2 1 1 1 1 1 1 1 0 0 1 1 2 2 2 2 2 2 1 2 2 2 2 1 0 -0 -1 -1 -2 -4 -11 -21 -26 -26 -25
3 3 3 3 3 3 3 2 2 1 1 1 1 1 1 0 0 1 1 1 1 2 2 1 1 0 -0 0 -0 -0 -1 -1 -2 -5 -14 -20 -25 -27 -28 -29 -29 -28 -28
2 3 3 3 3 3 3 2 2 1 1 1 1 0 0 0 0 1 1 1 1 1 1 -0 -1 -1 -1 -1 -1 -4 -12 -22 -26 -27 -28 -28 -30 -30 -30 -30 -30 -29 -27
-1 0 1 1 1 2 2 2 2 1 1 1 0 0 0 0 0 1 0 -0 -1 -1 -1 -1 -1 -1 -5 -19 -23 -25 -27 -28 -29 -29 -29 -30 -29 -30 -30 -30 -29 -28 -27
-1 -1 -2 -1 1 2 2 2 1 1 1 0 0 0 -0 -0 0 0 -0 -1 -2 -2 -2 -2 -3 -15 -23 -26 -28 -30 -30 -30 -30 -29 -28 -28 -29 -31 -29 -29 -28 -28 -28
1 1 1 2 2 2 2 1 1 0 -0 -0 0 -0 -0 -0 0 -0 -1 -2 -2 -2 -2 -6 -17 -22 -25 -28 -30 -30 -31 -31 -29 -28 -27 -27 -30 -30 -29 -28 -28 -28 -28
2 2 2 1 1 1 1 1 0 -0 -0 0 0 -0 -0 -0 -0 -1 -1 -2 -2 -2 -6 -18 -20 -23 -26 -26 -28 -29 -30 -30 -29 -28 -29 -31 -30 -29 -28 -27 -28 -27 -24
1 1 1 1 1 1 0 0 -0 -0 -0 -0 0 -0 -0 -0 -0 -1 -1 -1 -2 -5 -17 -19 -22 -24 -25 -26 -26 -27 -27 -28 -29 -29 -29 -29 -28 -27 -27 -27 -26 -24 -22
2 1 1 1 1 1 0 -0 -1 -0 -0 -0 -0 -1 -1 -1 -1 -1 -1 -2 -3 -14 -17 -20 -22 -24 -26 -27 -27 -27 -28 -28 -28 -29 -28 -27 -27 -27 -27 -27 -26 -25 -23
2 1 1 1 1 2 1 -0 -1 -1 -1 -1 -1 -1 -1 -1 -1 -2 -2 -3 -9 -14 -18 -21 -23 -25 -27 -28 -28 -29 -29 -29 -29 -29 -28 -27 -27 -28 -28 -27 -27 -26 -26

GFSMW_850_dewp_090.txt.gz
Dewpoint
3 3 6 8 9 10 8 9 10 12 12 12 12 12 13 13 13 13 13 12 11 11 11 11 11 10 10 10 10 10 10 10 10 10 10 10 10 10 10 9 8 8 7
3 3 4 6 9 9 8 9 9 9 10 10 10 11 11 11 12 13 12 13 12 12 11 11 11 11 11 11 11 10 10 10 11 11 11 11 10 11 10 9 8 8 8
4 4 3 4 4 8 9 8 6 5 5 6 6 8 9 9 10 11 11 11 11 11 11 11 11 11 12 11 11 11 11 11 11 11 11 11 10 10 10 9 9 8 9
4 4 3 3 2 1 0 5 5 5 5 6 5 7 8 7 7 9 11 12 12 12 12 12 12 12 11 11 11 11 11 12 11 11 11 11 11 10 10 10 9 8 8
3 4 3 2 2 2 3 1 -0 5 5 4 3 7 7 6 8 8 9 11 11 11 11 11 11 11 11 11 11 11 11 10 11 11 11 11 10 10 10 10 8 8 8
2 2 3 2 2 1 1 2 1 -1 2 4 3 6 6 7 6 6 8 10 8 9 11 11 10 9 9 9 9 10 10 11 11 10 11 11 11 9 9 9 9 9 7
1 1 2 2 3 2 1 -2 -1 0 0 2 3 3 5 6 6 9 8 4 3 3 4 5 5 7 9 9 10 10 11 10 10 10 10 10 9 9 8 8 8 8 7
1 1 1 1 1 2 2 -1 -2 -2 -1 0 4 7 8 7 5 3 1 -1 -1 -1 -1 -0 1 2 3 5 8 8 9 10 11 10 10 9 9 9 8 7 8 8 7
-0 1 2 1 0 1 1 -0 -2 -2 -0 1 0 -0 -1 -2 -2 -2 -3 -3 -4 -4 -3 -1 1 2 3 4 5 7 11 11 11 10 9 9 8 8 8 8 8 7 7
-2 -2 0 2 1 0 -1 -1 -1 -1 -1 -1 -2 -2 -2 -3 -3 -3 -4 -4 -4 -3 -3 -2 -2 -1 -1 -0 1 3 8 10 10 10 10 8 8 8 8 7 5 5 6
0 -0 1 2 2 0 -0 -0 -0 -1 -1 -1 -1 -1 -2 -2 -2 -2 -2 -2 -2 -2 -2 -2 -2 -1 -1 4 8 8 9 9 9 10 9 8 8 7 4 4 2 3 3
2 2 2 2 1 0 1 1 1 0 0 0 -0 0 1 1 1 1 1 1 1 1 1 1 1 2 3 7 8 9 9 9 9 8 8 8 6 3 0 1 2 2 3
3 3 3 3 2 2 2 1 1 1 1 1 2 1 1 1 1 1 1 1 1 1 1 1 2 2 3 5 7 7 7 8 8 8 7 5 1 -0 1 1 2 2 2
4 3 3 3 3 2 2 2 2 2 2 1 1 1 0 0 -0 -0 0 0 0 0 0 1 1 2 2 2 3 3 4 4 3 1 1 0 1 1 1 2 2 1 1
4 4 3 3 3 2 3 3 2 2 1 1 1 1 0 0 0 -0 -0 0 1 1 1 1 1 1 1 1 1 1 1 1 1 1 1 1 2 1 1 1 0 0 -0
4 4 3 3 3 3 3 2 2 1 1 1 1 1 1 1 1 0 0 1 1 1 1 2 1 1 1 1 1 1 2 2 2 2 2 1 1 1 1 0 -1 -1 -1
3 3 2 3 3 3 2 3 2 2 1 1 1 1 1 1 1 0 0 1 1 1 1 1 1 2 2 2 2 2 2 2 2 2 1 0 -0 -1 -2 -9 -15 -21 -25
3 3 3 3 3 3 3 3 2 2 1 1 1 1 1 1 1 0 0 1 1 1 1 2 2 1 1 1 2 2 1 1 0 -0 -1 -2 -9 -21 -26 -26 -28 -29 -29
3 3 3 3 3 3 3 3 3 2 1 1 1 1 1 1 0 0 0 1 1 1 1 1 1 -0 -0 -0 -1 -0 -1 -1 -2 -10 -22 -26 -28 -29 -30 -31 -30 -30 -28
2 3 3 3 3 3 3 3 3 2 2 1 1 1 0 0 0 0 0 0 0 -0 -0 -1 -1 -1 -1 -1 -1 -3 -12 -22 -26 -27 -28 -30 -30 -29 -31 -31 -30 -29 -29
-1 -1 -1 -0 1 2 2 2 3 2 2 1 1 0 0 0 -0 -0 0 0 -0 -1 -2 -2 -2 -1 -4 -14 -23 -24 -25 -27 -28 -28 -28 -28 -30 -31 -32 -31 -30 -29 -28
0 0 0 -0 -0 1 2 2 2 2 1 1 0 -0 0 0 -0 -0 0 -0 -1 -1 -2 -2 -2 -8 -20 -24 -27 -30 -29 -28 -28 -28 -28 -27 -30 -32 -31 -31 -29 -29 -29
2 2 2 2 2 2 2 2 2 1 0 0 -0 -0 -0 -0 -0 -0 -0 -1 -1 -2 -2 -2 -6 -16 -22 -25 -29 -29 -29 -30 -29 -28 -27 -29 -31 -30 -30 -29 -29 -29 -27
1 1 1 1 1 1 1 1 1 0 -0 -0 -0 -0 0 -0 -0 -0 -0 -1 -1 -2 -2 -3 -15 -20 -22 -25 -26 -27 -28 -29 -30 -29 -30 -30 -29 -28 -27 -28 -28 -26 -24
3 2 1 1 1 1 1 1 0 -0 -0 -0 -0 -0 -0 -0 -0 -0 -1 -1 -1 -2 -2 -8 -18 -21 -24 -26 -25 -25 -25 -26 -27 -27 -28 -28 -27 -27 -27 -27 -27 -26 -24
1 1 2 2 1 1 1 1 0 -0 -1 -0 -0 -0 -0 -1 -1 -1 -1 -2 -2 -2 -4 -16 -17 -21 -23 -25 -27 -27 -27 -28 -28 -29 -28 -27 -27 -27 -28 -28 -27 -26 -26

GFSMW_850_dewp_093.txt.gz
Dewpoint
3 3 4 5 6 9 13 14 12 12 12 12 13 14 13 13 13 13 13 14 14 13 13 13 13 13 12 11 11 10 10 9 9 10 9 10 10 10 10 11 11 10 9
2 3 4 6 5 7 9 11 13 11 11 13 12 12 12 13 13 12 12 13 13 12 12 12 12 13 13 11 12 11 10 10 11 10 12 11 11 11 11 10 10 9 9
1 2 4 4 8 8 9 9 11 12 10 10 10 12 12 11 12 12 12 12 12 11 12 12 11 12 12 12 12 11 11 11 11 11 11 12 11 10 10 10 9 9 9
1 3 4 5 6 9 9 9 9 10 9 8 8 7 8 8 8 8 8 8 10 10 10 10 11 11 11 11 11 11 11 11 12 12 11 11 11 11 10 9 9 9 9
2 3 4 5 6 5 7 7 6 6 5 5 6 5 6 7 8 7 8 8 6 6 9 9 8 9 12 11 12 12 12 12 11 12 12 11 11 11 10 8 8 9 8
3 3 4 4 4 2 2 2 2 3 6 7 4 6 6 6 6 7 9 5 3 4 8 9 7 8 9 10 11 11 11 11 11 11 11 12 10 11 10 10 9 9 9
2 3 3 4 3 3 1 2 1 2 1 2 5 4 6 5 5 4 6 6 6 6 1 2 6 9 10 10 10 10 11 11 11 11 12 11 11 11 10 9 9 8 9
0 1 2 3 3 2 2 2 0 -1 -1 1 2 3 5 5 4 4 6 7 6 5 2 1 2 2 3 4 8 12 12 12 11 11 11 11 10 10 9 9 9 8 8
-0 0 1 1 2 2 2 2 3 0 -2 -1 -0 2 3 3 3 4 2 4 1 -1 -2 -2 -2 -1 0 2 4 7 11 12 11 11 11 11 10 10 8 8 9 8 8
-2 -1 1 1 2 3 1 2 3 3 0 -1 0 2 3 4 3 0 -1 -2 -3 -3 -3 -3 -3 -2 -1 0 1 2 5 10 10 11 10 10 10 10 8 7 8 7 7
-2 -2 -1 1 2 3 2 1 3 4 3 0 -1 -1 -1 -2 -2 -2 -2 -3 -3 -2 -2 -2 -2 -2 -2 -1 0 3 4 8 9 9 10 6 9 9 7 7 6 5 4
0 0 -0 2 3 3 3 2 1 0 -0 -1 -1 -0 -1 -1 -1 -1 -1 -0 -0 0 0 1 1 1 2 2 3 5 8 9 9 8 9 8 9 8 7 5 2 1 2
2 2 2 3 3 4 4 2 1 0 0 0 -0 -0 0 1 1 1 1 1 1 1 1 1 2 2 2 4 4 6 7 8 8 8 8 8 7 7 4 0 1 2 2
3 2 3 3 3 3 4 3 2 1 1 1 1 1 1 1 0 0 -0 -0 -0 -0 -0 0 1 1 2 3 4 6 7 7 7 7 7 7 5 1 0 1 1 2 2
3 3 3 3 3 3 3 2 1 1 2 2 1 1 1 0 0 0 0 -0 -0 -0 0 0 1 1 1 1 2 2 3 3 4 3 2 1 1 1 1 1 1 1 0
3 3 3 3 3 3 3 2 2 2 2 1 1 1 1 0 0 1 0 0 0 0 0 1 1 1 1 1 1 1 1 1 1 1 1 1 1 1 1 1 0 -0 -0
3 3 3 3 3 3 3 2 2 2 1 1 1 1 1 1 1 1 1 0 0 0 0 1 1 1 1 1 1 1 1 2 2 2 2 2 1 1 0 -0 -1 -2 -6
2 3 3 3 3 3 3 2 2 2 2 1 1 1 1 1 1 1 1 0 0 0 1 1 1 1 1 2 2 2 2 2 2 2 1 0 -0 -1 -3 -13 -25 -27 -28
2 2 3 4 4 3 3 3 2 2 2 2 2 1 1 1 1 1 1 0 0 1 1 1 1 1 1 1 1 2 1 1 1 0 -1 -1 -7 -20 -27 -29 -30 -31 -31
3 3 3 4 4 3 3 3 3 2 2 2 2 1 1 1 1 0 0 0 0 1 1 0 -0 0 -1 -1 -1 -1 -1 -1 -1 -3 -13 -25 -28 -28 -30 -32 -31 -30 -29
0 3 4 4 4 3 3 3 3 2 2 2 2 1 1 1 0 0 0 -0 0 0 0 -0 -1 -1 -1 -1 -1 -2 -4 -11 -22 -25 -26 -27 -29 -29 -31 -33 -30 -29 -29
0 -0 -1 -1 -0 1 2 3 3 2 2 2 1 1 1 0 0 0 -0 -0 0 0 -1 -1 -2 -2 -2 -3 -11 -21 -23 -24 -24 -26 -26 -26 -27 -30 -33 -32 -31 -29 -30
2 2 1 1 1 1 1 2 2 2 2 2 1 1 0 -0 -0 0 -0 -0 -0 -0 -1 -2 -2 -2 -5 -16 -23 -26 -29 -27 -27 -26 -26 -27 -28 -31 -31 -31 -29 -29 -28
1 1 1 1 1 1 2 2 2 1 1 1 0 0 -0 -0 0 -0 -0 -0 0 -0 -1 -2 -2 -2 -8 -19 -24 -28 -28 -28 -29 -27 -27 -28 -30 -30 -29 -28 -29 -28 -26
2 2 2 1 1 1 1 1 1 1 0 -0 -0 -0 -0 -0 -0 -0 -0 0 -0 -1 -1 -2 -2 -3 -14 -21 -23 -24 -24 -25 -27 -27 -28 -28 -29 -28 -28 -27 -27 -26 -25
1 1 1 1 2 2 2 1 1 1 0 0 -0 -0 -0 -0 -0 -0 -0 -0 -1 -2 -2 -3 -2 -5 -17 -20 -22 -23 -22 -23 -24 -26 -27 -27 -27 -27 -27 -27 -27 -26 -26

GFSMW_850_dewp_096.txt.gz
Dewpoint
2 3 4 4 13 13 14 12 12 13 14 14 13 13 13 13 13 13 13 12 12 13 12 11 12 13 11 10 10 9 9 8 8 9 9 9 9 9 10 10 10 10 10
1 2 4 4 12 12 12 12 11 12 12 11 11 13 13 13 13 13 13 12 12 13 13 12 12 13 13 12 11 12 10 10 10 9 10 11 10 11 11 11 11 11 10
0 2 4 4 10 12 13 12 11 11 11 11 12 12 12 13 13 13 12 12 12 12 11 11 11 11 12 12 11 11 11 10 11 11 11 11 11 11 10 11 11 9 9
-0 1 4 4 9 11 11 11 12 12 10 10 11 10 11 11 11 12 12 12 11 11 11 11 10 10 10 10 11 11 11 11 11 12 11 12 11 11 11 10 10 9 9
-1 -0 3 3 6 10 10 8 10 12 12 11 9 10 9 9 9 9 8 9 9 8 7 8 9 8 7 7 8 10 10 10 12 12 12 12 12 12 11 11 11 9 9
-0 1 4 4 4 6 10 9 8 9 10 8 8 8 8 8 8 8 7 7 7 8 7 7 8 8 6 6 6 7 9 9 11 12 12 12 11 10 11 11 10 10 10
-0 2 4 5 5 6 4 7 8 9 8 8 7 5 5 6 6 7 7 7 8 7 7 7 7 6 2 3 3 4 8 11 12 12 12 12 12 11 10 10 10 9 9
-0 2 4 3 3 4 2 3 3 3 3 4 5 6 5 6 6 5 7 5 6 4 4 4 3 2 3 1 1 8 12 12 11 12 12 11 11 10 10 10 9 9 9
-1 2 2 4 3 3 3 2 2 1 -0 1 2 6 8 8 7 7 7 8 7 7 6 8 7 2 -1 -2 -1 2 5 10 10 10 10 10 10 10 9 10 9 9 8
-1 0 1 2 3 3 2 1 1 2 2 0 0 1 2 3 5 4 3 5 5 3 1 -1 -2 -3 -3 -2 -1 0 2 6 9 10 8 9 6 9 10 10 9 8 8
-2 -2 -0 1 2 3 2 2 2 2 2 2 2 2 0 1 2 3 2 -0 -1 -2 -3 -2 -2 -2 -2 -1 -1 -1 0 3 6 9 10 6 9 9 9 8 9 7 7
-1 -2 -2 0 2 3 3 3 3 3 3 3 3 2 2 -0 -1 -2 -2 -2 -2 -2 -1 -0 -0 0 0 1 1 2 6 8 8 8 8 8 8 8 8 8 8 7 3
1 0 -1 1 2 2 3 3 3 2 3 3 3 3 1 -0 -1 -1 -1 -1 -0 0 0 1 1 1 1 2 2 4 5 7 7 7 8 8 8 8 7 6 6 0 0
2 2 2 3 3 3 3 3 2 1 1 0 -0 -0 0 -0 -0 0 0 0 -0 -0 -1 -1 -0 -0 0 1 2 3 5 6 6 7 7 6 6 6 6 5 0 1 1
3 2 3 3 3 4 4 3 2 1 1 1 1 1 1 1 0 0 -0 -0 0 -0 -0 -0 -1 -0 -0 0 1 2 2 4 5 5 5 5 6 5 2 1 1 1 1
3 3 3 3 3 3 3 3 2 2 2 2 1 1 1 1 0 0 0 0 0 0 0 0 -0 0 0 1 1 1 2 2 2 2 2 2 1 1 1 1 1 1 0
3 3 3 3 3 3 3 2 2 2 2 1 1 1 1 1 1 1 1 1 1 1 0 0 0 1 1 1 1 1 1 1 1 1 2 2 1 2 1 1 1 0 -0
2 3 3 3 3 3 2 2 2 2 2 1 1 1 1 1 1 1 1 1 1 0 0 0 0 1 1 1 1 1 2 2 2 2 2 2 1 1 1 -0 -1 -2 -6
1 2 3 3 3 3 3 2 2 2 2 2 2 1 1 1 1 1 1 1 1 0 0 0 0 1 1 1 1 1 1 1 1 1 1 1 0 -1 -1 -8 -22 -27 -26
2 2 3 3 4 3 3 2 2 2 2 2 2 2 2 1 1 1 1 1 0 0 0 0 0 0 0 0 -0 0 0 0 0 1 0 -1 -2 -11 -24 -27 -28 -29 -28
2 3 4 4 4 4 3 3 3 2 2 2 2 2 2 1 1 1 1 0 0 0 0 0 0 -0 -1 -1 -1 -1 -1 -1 -1 -1 -4 -14 -24 -27 -28 -30 -29 -29 -27
0 2 4 4 4 4 3 3 3 3 2 2 2 2 1 1 1 1 0 0 0 -0 0 0 -0 -1 -1 -2 -2 -2 -2 -5 -13 -20 -23 -23 -26 -27 -28 -30 -32 -29 -29
1 1 1 1 0 0 1 1 2 2 2 2 2 2 1 1 1 0 -0 0 -0 0 0 -0 -0 -1 -2 -2 -2 -7 -19 -22 -23 -23 -24 -26 -25 -26 -30 -32 -31 -30 -30
2 1 1 1 1 1 2 2 2 2 2 2 1 1 0 0 -0 -0 -0 0 -0 -0 0 -0 -1 -1 -2 -2 -9 -19 -23 -28 -27 -26 -26 -26 -25 -26 -30 -30 -31 -29 -28
1 2 2 1 1 1 1 1 1 1 1 1 0 0 -0 -0 -0 -0 -0 -0 -0 -0 -1 -1 -1 -2 -2 -2 -11 -19 -23 -25 -25 -26 -27 -26 -27 -29 -29 -28 -27 -27 -27
1 1 1 1 1 1 2 2 1 1 1 0 0 0 0 -0 -0 -0 -0 -0 -0 -0 -1 -2 -2 -2 -3 -5 -15 -19 -21 -21 -20 -22 -25 -26 -26 -27 -27 -26 -26 -27 -26

GFSMW_850_dewp_099.txt.gz
Dewpoint
4 4 3 5 10 12 13 13 13 13 13 14 14 13 13 13 13 12 12 12 12 12 12 10 9 10 10 8 8 8 9 9 9 9 8 8 8 8 9 10 10 11 10
5 4 4 4 10 11 12 12 12 13 13 13 13 13 13 13 12 12 13 12 12 12 12 11 11 12 12 12 11 10 10 10 10 10 10 10 9 9 10 11 11 11 10
1 3 4 4 4 11 11 10 9 11 11 13 12 13 13 13 13 13 13 13 12 12 12 13 11 12 13 13 12 11 11 11 11 10 11 11 11 10 10 11 11 11 10
-1 2 4 4 4 4 11 11 11 9 10 11 11 11 11 12 12 13 12 12 12 12 12 12 11 11 12 11 11 11 11 12 11 11 11 11 11 11 10 11 11 10 10
-1 1 3 3 5 4 8 11 11 11 11 11 11 11 11 11 12 12 11 11 11 11 10 10 11 11 10 10 9 9 9 8 9 8 9 9 10 12 11 11 10 9 9
-1 -0 3 4 4 9 8 11 13 12 12 11 11 11 10 10 9 9 9 8 8 8 8 8 8 10 10 9 8 8 7 7 7 8 8 9 9 12 12 11 10 9 9
-1 -1 3 4 4 6 9 10 10 11 11 10 10 9 9 8 8 8 8 8 8 9 9 9 9 8 7 6 6 5 6 4 3 2 8 8 11 11 10 11 10 9 9
-1 -1 2 4 4 4 5 8 8 10 10 10 7 7 6 6 6 5 5 5 5 6 6 6 7 8 7 8 8 6 4 4 2 3 5 9 9 10 10 10 10 10 9
-1 -1 2 4 4 4 5 6 8 9 9 8 7 6 5 6 6 6 6 5 4 5 6 6 7 4 4 4 4 5 5 3 3 4 7 9 9 9 9 9 9 10 9
-1 0 2 4 4 3 3 3 3 5 3 3 3 3 3 4 5 6 6 6 7 9 9 8 8 7 6 1 -1 -2 -2 -3 -1 1 7 8 9 9 9 9 8 9 9
-1 1 3 4 4 3 3 3 3 2 1 1 -0 0 3 5 5 6 6 6 6 6 5 3 -1 -2 -3 -3 -3 -3 -3 -3 -2 1 6 9 7 10 9 9 7 8 8
-2 -2 -1 2 3 3 3 2 2 1 2 1 1 1 2 2 1 1 -1 -1 -1 -1 -2 -2 -1 -1 -1 -1 -0 0 0 -0 -0 3 5 7 8 6 7 8 9 8 8
-1 -1 -2 1 3 3 3 3 2 2 2 2 2 3 2 2 2 2 2 1 -1 -1 -1 -0 0 0 1 1 1 1 2 3 4 5 7 7 7 7 7 8 7 7 7
1 -0 1 2 3 3 3 3 3 3 3 4 4 3 2 2 2 1 -0 -0 0 0 -0 -0 -1 -1 -1 -0 0 0 2 3 5 6 6 6 7 7 7 7 6 6 4
2 2 2 2 3 3 3 3 3 3 2 2 2 1 1 0 -0 -1 0 0 -0 -0 -0 -0 -0 -0 -0 -1 -1 0 0 2 3 5 5 5 5 5 5 5 5 3 1
2 2 2 2 3 3 2 2 2 2 1 1 1 1 1 1 0 0 0 0 0 0 0 0 0 0 0 0 0 0 1 1 2 3 4 4 4 5 5 4 1 1 1
3 3 3 3 3 3 3 2 2 2 1 1 1 1 1 1 1 0 1 1 1 1 1 1 0 0 0 -0 0 1 1 1 1 2 2 2 2 1 1 1 1 1 1
2 3 3 3 3 3 2 2 2 2 2 2 1 1 1 1 1 1 1 1 1 1 1 0 0 0 0 -0 0 1 1 1 1 2 2 2 2 2 2 1 1 0 0
-0 3 3 3 3 3 2 2 2 2 2 2 1 1 1 1 1 1 1 1 1 1 1 1 0 0 -0 -0 0 1 1 1 1 1 1 1 2 1 1 1 -0 -1 -2
-0 2 3 3 3 3 3 3 2 2 2 2 2 2 1 1 1 1 1 1 1 1 1 0 0 0 -0 -0 0 1 -0 0 0 0 0 1 0 -0 -1 -1 -7 -21 -25
2 3 3 3 3 3 3 3 2 2 2 2 2 2 2 2 2 2 1 1 1 0 0 0 0 0 0 -0 -0 -1 -1 -1 -1 -1 -0 -1 -1 -4 -14 -21 -26 -26 -27
0 4 4 4 4 4 4 3 3 2 2 2 2 2 2 2 2 1 1 0 0 0 0 -0 0 -0 -0 -1 -1 -2 -2 -2 -2 -2 -3 -8 -16 -22 -24 -27 -29 -29 -27
1 1 2 3 4 4 4 3 3 2 2 2 2 2 2 2 1 1 0 0 -0 0 0 0 0 -1 -1 -1 -1 -2 -2 -3 -10 -16 -19 -20 -21 -22 -24 -27 -28 -30 -28
2 1 1 1 1 1 2 1 2 2 2 2 2 2 1 1 0 0 -0 -0 -0 0 -0 -0 -0 -0 -1 -1 -2 -2 -8 -17 -22 -24 -24 -23 -23 -24 -23 -27 -29 -29 -28
1 1 2 1 1 1 1 1 1 1 1 1 1 1 0 0 0 0 -0 -0 -0 -0 -0 0 -0 -1 -1 -1 -2 -3 -12 -17 -22 -24 -24 -24 -25 -25 -24 -26 -27 -28 -27
0 0 1 1 1 1 1 1 1 1 1 1 0 1 0 1 0 0 -0 -0 -0 -0 -0 -0 -0 -1 -2 -2 -2 -5 -15 -18 -19 -21 -24 -25 -26 -24 -25 -25 -25 -26 -25

GFSMW_850_dewp_102.txt.gz
Dewpoint
5 7 11 12 12 12 12 12 13 13 13 12 13 13 12 13 13 12 13 12 11 12 11 9 9 9 9 9 8 8 8 8 8 9 9 8 8 8 8 9 10 11 11
6 5 5 8 12 12 12 12 12 12 12 12 13 13 13 13 12 12 12 12 12 12 12 12 11 10 10 10 10 10 9 9 10 10 10 10 9 8 9 10 11 11 11
5 5 5 4 8 10 12 13 12 13 13 12 12 12 13 13 12 12 12 12 13 12 12 13 12 12 10 8 9 10 10 10 11 11 11 11 11 10 10 10 11 11 11
2 5 4 4 6 5 7 10 11 11 12 13 12 11 11 12 12 12 12 12 13 13 13 12 12 11 12 9 10 10 9 10 10 11 11 11 11 11 11 10 10 11 11
-0 0 4 4 4 4 4 7 10 10 10 12 12 11 12 11 12 12 12 12 13 13 12 12 12 12 12 12 12 11 10 10 9 9 10 9 9 9 9 10 10 10 10
-1 -1 1 4 4 5 5 7 8 10 11 11 11 11 11 11 11 11 12 13 12 11 11 11 10 10 11 11 10 9 9 9 8 8 8 9 9 7 8 9 10 10 10
-0 -1 1 5 5 5 5 6 6 9 9 10 10 11 11 11 11 10 10 10 9 8 8 8 9 8 8 8 9 9 8 7 7 6 7 6 6 7 6 8 9 9 10
-0 -1 -1 3 5 6 5 5 6 7 8 10 10 11 11 10 9 8 8 8 8 8 8 9 8 8 8 8 9 8 9 8 8 8 5 4 6 6 8 7 9 10 10
-1 -1 -1 -0 4 4 5 5 5 6 7 8 10 10 9 9 8 8 7 6 6 6 5 5 5 6 6 5 4 5 4 4 4 7 7 7 6 9 10 10 9 9 10
-1 -1 -1 -0 2 3 4 5 5 7 7 9 9 8 6 5 5 5 6 6 6 5 5 6 7 7 6 5 6 7 5 1 -1 -2 -1 1 3 7 9 8 8 8 9
-2 -2 -1 0 3 4 4 4 4 5 8 9 9 7 7 6 6 6 5 6 6 6 7 8 8 8 7 4 0 -2 -2 -2 -2 -2 -2 -1 5 7 8 8 9 8 8
-1 -0 -1 0 4 5 4 3 3 3 4 3 3 3 4 5 5 7 6 3 3 1 -1 1 -0 -1 -2 -1 -1 -1 -1 -0 -0 0 0 1 4 6 7 7 8 8 8
-1 -1 2 4 5 4 4 3 3 2 2 1 1 1 2 3 2 2 1 1 0 1 -1 -1 -1 0 0 0 0 0 0 0 1 2 2 4 5 7 6 6 8 7 8
0 -0 -1 -0 4 4 4 3 2 2 2 2 2 2 2 2 1 1 1 1 1 0 -1 -1 -0 -1 -1 -1 -1 -1 -1 -0 -0 1 5 6 6 7 7 7 7 7 7
1 1 2 2 3 4 3 3 3 3 3 3 3 3 3 3 3 2 1 0 0 -0 -0 -0 -0 0 0 0 0 -0 -0 -0 1 0 2 4 5 5 6 6 6 6 5
2 2 2 3 3 2 2 3 3 3 3 3 3 3 3 2 1 1 1 0 0 -0 0 0 0 0 0 0 0 -0 -0 0 0 1 2 3 4 4 4 4 4 4 5
2 2 2 2 2 2 2 2 2 2 2 2 1 1 1 1 1 1 0 0 0 0 0 1 1 0 0 0 0 -0 -1 0 1 1 2 2 3 3 3 3 3 3 2
2 2 3 3 3 3 3 3 2 2 2 1 1 1 1 1 1 1 1 1 1 1 1 1 1 1 0 0 0 -0 -1 0 1 1 1 2 2 2 2 2 1 2 2
-1 2 3 3 3 3 2 2 2 2 2 2 2 1 1 1 1 1 1 1 1 1 1 1 1 1 0 0 0 -1 -1 1 1 0 0 1 1 1 1 1 1 1 0
-0 -0 2 3 3 3 3 2 2 2 2 2 2 1 1 1 1 1 1 1 1 1 1 1 1 0 0 0 -0 -1 -1 0 0 0 0 0 0 0 1 0 -1 -1 -2
0 2 2 3 3 3 3 3 3 2 2 2 2 2 2 2 1 1 2 1 1 1 1 0 0 0 0 0 -0 -0 -1 -1 -1 -0 -0 -0 -0 -1 -1 -1 -3 -10 -18
2 4 3 3 3 3 3 3 3 2 2 2 2 2 2 2 2 2 2 1 1 1 0 -0 0 0 -0 -0 -1 -2 -1 -2 -1 -1 -1 -1 -2 -3 -8 -17 -21 -23 -23
1 3 4 4 4 4 3 3 3 3 3 2 2 2 2 2 2 2 1 1 0 -0 -0 0 0 -0 -1 -1 -1 -1 -2 -2 -2 -3 -5 -8 -13 -18 -20 -22 -24 -25 -26
2 1 1 1 2 2 3 3 3 3 2 2 2 2 2 2 2 1 1 0 0 -0 -0 -0 -0 -0 -0 -1 -1 -1 -2 -2 -2 -11 -19 -19 -19 -20 -20 -21 -23 -25 -25
1 1 1 1 1 1 1 1 1 1 2 2 2 2 1 1 1 0 0 0 -0 -0 -0 -0 -0 -0 -0 -1 -2 -2 -3 -3 -12 -17 -21 -23 -23 -22 -22 -22 -22 -26 -26
0 -0 -0 -0 0 1 1 1 1 1 1 1 1 0 0 0 0 0 0 0 1 1 0 -0 -0 -0 -1 -2 -2 -2 -3 -5 -14 -17 -22 -23 -24 -24 -23 -22 -22 -24 -25

GFSMW_850_dewp_105.txt.gz
Dewpoint
8 10 11 10 12 12 13 12 12 13 14 13 13 13 12 13 12 12 12 12 11 10 8 7 8 9 10 11 11 10 10 9 8 9 8 8 8 8 8 9 9 10 10
7 9 10 11 10 11 12 12 12 12 12 13 13 12 12 12 12 12 12 12 12 11 11 11 11 10 10 10 10 9 8 8 9 9 10 9 9 9 9 9 9 10 11
5 6 8 10 11 11 12 12 12 12 12 12 12 11 12 12 12 12 12 12 12 12 11 11 12 12 12 11 11 11 11 9 10 10 11 11 10 10 10 10 10 10 10
4 4 6 8 10 10 11 11 12 12 12 11 11 11 11 11 7 11 11 12 12 12 12 12 12 12 11 11 10 11 11 10 10 10 10 10 10 10 10 10 10 10 10
4 3 4 6 5 8 10 10 11 11 12 11 12 12 11 11 11 12 13 12 12 12 12 13 12 11 11 11 11 10 12 10 10 10 11 10 11 10 10 9 9 9 10
3 2 1 5 5 6 6 8 9 10 11 12 12 11 12 11 11 12 13 12 11 11 11 12 10 10 10 9 10 10 7 9 9 10 9 9 9 9 10 9 7 7 9
2 -0 -0 0 4 5 5 6 7 8 9 10 11 11 12 12 11 11 10 10 10 9 9 9 9 9 9 10 11 10 10 9 9 8 8 7 7 8 7 8 10 7 8
-0 -0 -1 -1 1 4 6 6 6 6 7 9 8 9 10 10 10 10 10 9 8 8 8 8 8 9 9 9 9 10 9 9 9 9 7 7 8 6 6 6 8 8 9
-1 -0 -1 -1 2 4 5 5 5 5 6 7 8 9 9 9 10 10 9 8 8 7 7 6 8 8 7 7 7 7 6 5 6 6 7 7 7 6 7 8 8 9 10
-0 -0 -1 -1 -0 3 5 6 5 5 5 6 7 7 8 10 10 9 8 8 7 6 6 6 5 6 7 8 7 6 6 7 5 3 1 0 0 0 5 10 10 10 10
-1 -1 -1 -1 -1 1 5 6 6 6 5 7 7 9 10 10 8 7 7 7 6 6 6 6 7 6 7 7 7 5 2 -1 -2 -2 -1 -0 -0 -1 1 9 8 9 10
-1 -2 -2 -1 -1 1 5 6 5 4 5 5 7 9 9 7 6 6 6 6 6 7 7 4 2 1 0 -1 -1 -1 -1 -0 0 0 0 1 2 2 7 7 7 8 8
-1 0 -1 -1 -0 2 4 4 4 4 4 4 7 8 9 8 8 7 6 7 8 5 1 -0 -0 -1 -1 -1 -0 -0 -1 -1 -1 -0 0 1 2 4 6 7 7 7 7
-0 -0 2 2 3 4 4 4 4 3 3 3 3 3 3 3 4 5 6 4 1 1 1 1 -0 -0 -1 -1 -1 -0 -0 -0 -0 -0 -0 0 2 4 6 6 6 6 7
1 0 0 1 5 5 4 4 4 3 2 2 2 2 2 2 2 2 1 1 2 1 0 -0 -0 -0 -0 0 0 0 0 -0 -0 -0 0 0 1 3 4 5 6 6 6
2 2 2 2 3 4 4 4 3 3 2 3 3 3 3 2 2 3 3 2 0 0 -0 0 0 0 0 0 0 0 0 -0 -1 -1 -0 1 1 3 3 3 4 4 5
2 2 2 2 3 3 3 3 3 3 3 3 3 3 3 3 3 1 1 1 0 0 0 0 1 1 1 1 0 0 0 0 -1 -1 -0 1 1 2 2 2 3 3 3
1 2 3 2 2 2 3 3 3 2 2 2 2 1 1 1 1 1 1 0 0 1 1 1 1 1 1 1 1 1 0 0 -1 -1 -0 0 1 1 1 1 2 2 1
-1 -0 2 3 3 3 3 3 2 2 2 1 1 1 1 1 1 1 1 1 1 1 1 1 1 1 1 1 0 0 0 -0 -1 -1 0 0 -0 -0 -0 -0 1 0 0
-0 -1 0 3 3 3 3 2 2 2 2 2 2 2 1 1 1 1 1 1 1 1 1 1 1 1 1 0 0 0 -0 -0 -1 -1 -0 0 -0 -0 -0 -0 -0 -0 -0
-0 0 1 3 3 3 3 2 2 2 2 2 2 2 1 1 1 1 1 1 2 2 1 1 1 0 0 0 0 -0 -0 -1 -1 -1 -1 -1 -1 -1 -1 -1 -1 -2 -4
2 4 3 3 3 3 3 3 3 3 2 2 2 2 2 2 2 2 2 2 2 1 1 0 0 -0 0 0 -1 -1 -1 -1 -1 -1 -1 -2 -2 -2 -2 -2 -7 -10 -13
1 3 4 3 3 3 3 3 3 3 3 2 2 2 2 2 2 2 2 2 1 1 0 0 -0 -0 0 -0 -0 -0 -1 -1 -1 -2 -2 -2 -3 -5 -8 -13 -18 -20 -22
1 1 1 2 3 4 3 3 3 3 3 3 2 2 2 2 2 2 2 1 1 0 0 -0 -0 -0 -0 0 -0 -0 -1 -1 -2 -2 -3 -8 -15 -17 -17 -17 -18 -21 -23
1 1 1 1 1 1 1 1 2 2 2 2 2 2 2 2 2 2 1 0 0 0 0 1 0 0 0 -0 -0 -1 -1 -1 -2 -3 -7 -16 -20 -22 -21 -20 -19 -20 -20
-0 -0 -1 -0 -0 0 1 1 1 1 1 1 1 1 1 1 1 0 0 1 1 1 1 1 1 0 0 -0 -1 -1 -2 -2 -3 -3 -9 -16 -18 -21 -22 -21 -19 -19 -20

GFSMW_850_dewp_108.txt.gz
Dewpoint
9 11 11 12 12 12 12 12 11 12 13 13 13 13 12 11 11 11 11 11 10 9 7 6 7 8 8 8 10 11 10 9 9 9 8 7 8 8 7 7 8 9 9
7 10 11 11 11 12 13 14 14 13 13 13 13 12 12 12 13 12 12 12 12 11 10 10 9 9 9 9 10 11 10 10 10 10 10 9 9 9 9 9 9 9 9
6 8 10 11 11 11 12 12 13 13 12 12 12 12 11 12 13 12 12 11 11 12 11 12 11 11 11 11 11 11 10 10 10 11 11 10 10 10 9 9 9 9 9
5 5 7 10 10 9 11 10 11 13 13 12 12 11 11 11 11 10 10 10 9 11 12 12 12 12 11 11 12 12 11 10 9 11 10 10 10 11 10 10 10 9 9
4 4 4 8 10 10 10 11 11 13 13 13 12 8 8 10 11 10 9 10 10 11 12 13 13 13 12 11 11 10 9 10 10 9 7 9 10 11 11 10 10 9 9
4 3 3 4 9 10 9 8 11 10 12 12 13 12 11 11 12 10 10 10 9 12 12 11 10 9 8 11 11 11 10 11 10 10 10 10 10 9 9 9 10 8 8
3 2 1 3 5 8 10 10 11 11 11 11 11 12 11 11 11 11 10 10 10 10 10 10 10 10 9 9 9 9 10 10 10 10 10 9 9 8 9 9 8 7 7
3 1 -0 -0 2 5 6 7 7 8 9 9 9 8 9 10 10 10 10 10 10 10 9 8 8 6 8 9 9 8 10 10 10 9 9 9 8 8 8 8 8 7 8
2 1 -0 -0 0 1 4 6 5 6 7 7 7 8 8 9 9 10 10 9 8 8 8 7 6 7 8 7 6 6 8 8 6 6 7 7 7 7 7 9 9 9 9
0 0 -0 -1 0 2 4 5 4 6 6 7 7 7 8 9 9 10 9 9 8 8 7 6 6 5 5 6 7 8 8 7 8 6 0 -0 -0 -0 0 1 3 7 8
-1 -1 -0 -0 -1 1 4 5 5 5 5 5 5 7 7 8 9 9 9 8 8 7 6 6 5 6 7 6 6 5 3 1 -1 -1 -1 -1 0 1 1 1 2 4 8
-1 -1 -1 -1 -0 -1 2 6 6 5 5 5 6 6 8 9 9 9 8 7 7 6 6 6 6 3 1 -0 -1 -1 -1 -1 -0 -0 -1 -0 -0 1 2 2 7 7 7
-1 0 -1 -1 -1 -0 1 5 5 6 6 6 5 5 9 9 9 8 7 7 7 7 7 7 2 -0 0 -0 -0 -1 -1 -1 -1 -1 -0 -0 -0 -0 0 2 5 6 7
0 0 2 0 0 1 3 5 6 5 5 5 5 6 8 9 8 8 8 7 7 7 4 1 1 1 -0 -1 -1 -0 -0 0 -0 -0 -1 -1 -0 0 1 3 4 6 6
0 0 1 3 3 3 4 5 4 4 3 3 3 4 4 5 5 5 5 5 3 1 1 1 0 -0 -0 -0 0 0 0 0 -0 -0 -0 -0 -0 -0 1 2 3 4 5
2 1 2 2 4 5 5 5 4 4 3 3 2 2 2 2 3 3 2 1 2 2 1 -0 -0 0 0 0 0 0 0 0 0 0 0 -1 -1 -0 1 2 2 3 3
2 2 2 2 3 4 4 4 4 3 3 3 3 3 3 3 3 2 3 3 1 0 -0 0 0 1 1 1 1 1 1 1 1 0 -0 -1 -2 -2 0 1 2 1 2
1 2 2 2 2 3 3 3 3 3 3 3 3 3 3 3 3 3 1 1 0 0 0 1 1 1 1 1 1 1 1 0 0 0 -0 -1 -2 -1 0 -0 -0 0 1
-0 -0 1 3 3 3 3 2 2 2 2 2 2 2 2 1 1 1 1 0 1 1 1 1 1 1 1 1 1 1 0 0 -0 -0 -1 -1 -1 0 -0 -1 -1 -0 -0
-1 -0 -0 2 3 3 3 3 2 2 2 2 2 2 2 2 1 1 1 1 1 1 1 2 2 1 1 0 0 0 0 -0 -0 -1 -1 -1 -1 -1 -0 -1 -1 -0 -1
1 2 1 2 3 3 3 3 3 2 2 2 2 2 2 1 1 1 1 1 1 2 2 2 1 0 0 -0 0 0 -0 -0 -1 -1 -1 -1 -1 -1 -1 -1 -1 -1 -2
3 4 3 3 3 3 3 3 3 3 2 2 2 2 2 2 2 1 1 2 2 2 2 1 0 -0 -0 -0 -0 -0 -0 -1 -1 -1 -1 -2 -2 -1 -1 -2 -2 -3 -5
1 3 3 3 3 3 3 3 3 3 3 2 2 2 2 2 2 2 2 2 2 2 1 0 -0 -1 -1 -1 -0 -0 -0 -1 -1 -1 -2 -2 -2 -2 -3 -4 -7 -13 -17
1 1 1 2 3 3 3 3 3 3 3 3 3 2 2 2 2 2 2 2 2 1 1 0 0 -0 -0 -0 -0 -0 -0 -0 -1 -1 -1 -2 -3 -9 -13 -13 -16 -17 -18
1 1 1 1 1 1 1 2 2 2 3 2 2 2 2 2 2 2 2 2 1 1 0 1 1 1 1 0 0 -0 -0 -1 -1 -2 -2 -2 -5 -13 -19 -17 -18 -18 -17
-1 -1 -1 -1 -1 -0 -0 1 1 1 1 1 1 1 1 2 2 1 1 1 1 0 1 2 1 1 1 1 -0 -1 -1 -1 -2 -2 -2 -3 -5 -13 -17 -18 -20 -19 -18

GFSMW_850_dewp_111.txt.gz
Dewpoint
9 9 11 12 12 12 12 10 7 13 12 12 13 12 10 4 7 5 2 2 5 7 7 7 6 8 9 9 11 11 11 11 10 9 8 8 8 8 9 8 8 8 8
8 10 10 11 12 11 11 8 11 14 14 13 13 12 12 8 7 5 7 8 8 8 7 7 8 9 9 10 11 11 11 11 10 9 9 9 9 9 9 9 9 9 9
7 11 11 10 11 12 10 11 13 14 14 12 12 12 13 13 11 11 11 11 11 11 10 10 9 9 10 10 10 11 11 10 9 10 10 10 9 9 10 9 9 8 9
7 9 11 11 11 9 11 13 13 14 13 13 12 12 12 12 11 11 11 12 11 11 11 11 10 11 11 11 11 11 11 9 8 9 10 10 10 10 10 10 10 10 10
6 8 10 11 11 11 11 12 13 10 11 13 12 11 11 10 11 11 11 11 10 10 12 11 12 11 12 9 9 11 9 9 9 9 10 10 9 9 10 10 10 10 9
5 4 7 10 10 11 11 11 12 10 8 10 13 12 11 10 10 11 9 9 8 10 11 10 12 11 11 9 9 10 11 11 11 11 10 10 10 10 10 10 9 8 8
5 2 4 7 7 10 10 10 10 11 11 10 9 10 10 10 9 10 8 8 9 10 9 11 11 10 10 10 10 10 10 10 10 10 10 9 9 9 9 9 9 8 8
4 2 0 1 7 10 10 10 10 10 9 9 9 12 11 10 10 11 9 11 11 11 10 11 11 10 9 8 9 8 8 9 9 9 9 8 7 8 8 8 8 8 9
3 1 -0 0 3 7 8 6 7 8 9 9 9 10 9 9 10 10 11 11 10 10 10 9 8 7 8 7 6 6 6 7 7 5 5 6 7 4 5 6 8 8 9
4 3 -0 -0 2 4 8 8 8 8 8 9 9 9 9 9 9 9 9 9 9 8 8 7 6 6 5 5 6 7 8 8 8 7 5 -0 -1 -1 -0 0 0 2 6
3 3 1 -0 1 5 7 7 6 7 7 7 7 7 8 8 8 9 9 9 8 8 7 6 6 6 6 5 4 3 2 1 -1 -1 -1 -0 -0 -1 -0 0 1 2 4
2 2 2 -0 1 3 7 7 6 6 5 6 6 6 7 8 9 10 9 9 8 8 6 6 6 6 3 0 -0 -0 -1 -1 -1 -1 -1 -1 -1 -1 -1 -0 -0 1 6
2 1 2 2 -1 0 5 7 7 6 6 6 6 6 6 8 9 10 10 8 8 7 6 6 7 3 0 0 0 -0 -1 -1 -1 -1 -0 -1 -1 -1 -1 -0 0 1 4
2 2 2 0 0 -0 2 6 7 5 6 7 6 5 6 9 10 9 8 7 7 7 7 7 3 1 1 0 -1 -1 -1 -0 -0 -0 -0 -1 -0 -0 -0 -1 -0 1 2
2 3 3 4 2 2 3 6 7 6 5 6 6 5 6 8 8 8 8 8 7 7 6 2 1 1 0 -1 -1 -0 0 0 0 -0 -0 0 0 -0 -0 -1 -0 0 2
2 2 3 4 5 4 4 5 5 4 4 4 4 4 4 5 5 5 5 5 5 3 1 2 1 -0 -0 -0 0 0 1 1 0 1 1 0 0 -0 -1 -2 -2 1 2
1 2 3 2 4 4 5 4 4 4 3 3 3 3 3 2 3 3 3 2 2 2 1 0 0 -0 0 0 1 1 1 1 1 1 0 0 -0 -1 -2 -2 -1 0 1
-0 -0 2 3 2 3 4 4 4 3 3 3 3 3 3 3 3 2 2 3 2 1 0 0 0 1 1 1 1 1 1 0 0 0 -0 -0 -1 -1 -2 -1 -1 -1 -1
-0 -0 -1 1 3 3 3 3 3 3 4 4 4 4 3 3 3 3 3 1 1 0 0 1 1 1 1 1 1 0 0 0 -0 -0 -1 -1 -1 -1 -1 -0 -1 -1 -1
0 -0 -1 -0 3 3 3 3 3 3 3 3 2 2 2 2 2 1 1 1 1 1 1 1 2 2 1 0 -0 -0 0 0 -0 -1 -1 -1 -1 -1 -1 -1 -1 -1 -1
1 3 2 2 3 3 3 3 3 2 2 2 2 2 2 2 1 1 1 1 1 1 1 2 2 1 -0 -0 -1 -0 -0 -0 -0 -0 -1 -1 -1 -1 -1 -1 -1 -1 -1
2 3 3 3 3 3 3 3 3 3 2 2 2 2 2 1 1 1 1 1 1 1 2 2 1 0 -0 -1 -1 -1 -1 -0 -1 -1 -1 -1 -2 -2 -2 -2 -2 -2 -3
1 2 3 3 3 3 3 3 3 3 3 2 2 2 2 2 2 1 1 1 2 2 2 2 1 0 -0 -1 -1 -1 -1 -1 -1 -1 -1 -1 -1 -2 -3 -4 -4 -7 -10
1 1 1 2 3 3 3 3 3 3 3 3 2 2 2 2 2 2 2 2 2 2 2 1 1 0 0 0 0 -0 -0 -0 -0 -0 -1 -1 -2 -2 -6 -12 -11 -13 -16
0 0 1 1 1 1 1 2 3 3 3 3 3 3 3 2 2 2 2 2 2 2 2 1 0 1 1 1 1 0 -1 -1 -1 -1 -1 -2 -2 -2 -6 -13 -18 -15 -18
-1 -2 -2 -2 -2 -1 -1 -0 0 1 1 1 1 2 2 2 2 2 2 2 2 1 1 0 1 1 1 1 1 1 -1 -1 -1 -1 -2 -3 -3 -3 -5 -12 -16 -17 -20

GFSMW_850_dewp_117.txt.gz
Dewpoint
3 3 4 3 4 9 8 12 12 13 12 12 13 11 10 9 9 8 9 8 9 9 8 9 10 9 8 11 9 9 9 9 9 9 9 10 11 10 9 8 8 10 8
3 3 4 4 8 10 7 11 10 13 12 12 13 13 11 11 9 7 7 4 7 5 6 10 11 11 12 12 11 10 10 10 9 10 11 11 11 11 9 9 8 9 9
3 3 4 4 10 8 8 8 11 13 13 12 13 13 13 13 12 11 11 10 10 8 6 12 12 11 10 11 10 9 10 10 12 11 11 10 11 11 11 9 9 10 9
3 4 4 4 10 9 8 10 9 13 13 13 13 13 12 12 12 12 12 12 11 11 10 10 8 7 7 9 9 9 9 11 12 11 10 10 9 10 11 10 10 9 9
4 5 6 6 11 9 8 9 11 12 13 13 13 13 13 11 10 9 9 8 7 6 5 7 8 9 9 10 10 10 10 11 11 9 10 9 9 10 10 10 10 10 9
6 6 6 7 11 9 7 11 11 12 12 12 12 13 13 13 11 10 11 9 7 5 8 9 9 9 10 10 10 10 9 9 11 9 10 10 11 11 9 9 9 10 9
7 7 7 10 12 10 7 10 11 13 11 9 12 13 13 12 12 7 8 8 8 9 10 10 10 10 10 11 10 8 7 9 9 9 10 11 11 10 10 10 10 10 9
4 4 8 12 11 10 8 8 8 10 11 12 12 12 13 13 12 11 10 10 11 12 11 10 10 10 9 8 7 7 9 10 11 11 11 11 10 9 8 7 8 9 9
4 5 7 11 11 10 10 9 10 10 9 10 9 9 11 10 10 11 10 9 10 11 10 10 9 9 7 8 8 10 11 11 11 10 9 9 9 8 6 7 6 8 8
5 7 10 12 11 10 10 10 10 8 8 10 8 10 9 8 8 8 8 10 9 10 10 10 9 9 8 7 10 11 9 9 7 7 7 8 6 6 4 -1 -0 0 3
5 6 9 11 11 11 11 10 11 11 11 11 11 9 8 9 7 8 9 10 9 9 9 9 9 8 7 9 10 8 6 6 6 7 7 7 4 -1 -1 -1 -1 0 3
5 5 9 11 11 9 9 9 11 11 11 10 11 10 9 9 9 10 10 8 8 8 6 8 9 10 10 9 9 6 6 6 6 4 1 -1 -1 -1 -1 -1 -0 -1 0
5 5 5 9 10 10 8 9 9 9 9 9 9 8 8 10 9 8 8 9 8 8 9 10 10 10 9 9 6 6 5 2 -0 -1 -1 -1 -1 -1 -1 -1 -1 -1 -0
5 5 5 5 9 10 10 10 8 8 8 8 9 8 9 9 9 9 9 10 10 10 10 10 9 9 7 6 6 2 0 -0 -0 -1 -1 -1 -0 -0 -1 -0 -0 -0 -0
4 5 5 5 5 7 9 10 9 7 7 7 7 7 9 9 9 10 10 10 10 10 9 8 6 6 6 6 2 0 0 -0 -1 -1 -0 -0 -0 -0 0 0 0 0 -0
2 3 4 5 5 4 6 9 9 9 9 8 7 7 7 9 8 9 10 10 9 9 8 7 6 6 7 2 1 1 -0 -1 -0 -0 0 0 0 1 1 -0 -0 -0 -1
2 2 3 4 4 4 5 6 8 9 9 8 8 8 8 8 9 10 10 9 9 8 7 7 7 6 3 1 0 -0 -0 0 0 1 1 1 1 -0 -0 -0 -1 -1 -1
2 3 3 3 4 4 4 4 4 6 8 9 9 9 8 8 8 9 9 8 8 8 7 7 5 2 1 0 0 0 1 1 1 1 0 0 0 -0 -1 -1 -1 -1 -1
3 3 3 3 3 3 3 4 4 4 4 4 6 7 8 9 9 8 8 8 7 6 4 2 1 1 0 0 1 1 1 0 -0 -0 -0 -0 -0 -1 -1 -1 -1 -1 -1
3 3 3 4 3 3 3 3 3 4 4 4 3 3 4 4 4 4 4 4 3 2 1 1 1 0 0 1 1 1 -0 -1 -1 -1 -1 -1 -1 -1 -1 -1 -1 -1 -1
3 3 3 3 3 3 4 3 3 2 3 3 3 3 3 3 3 3 2 2 2 2 2 1 0 1 1 1 1 -0 -1 -1 -1 -1 -1 -1 -1 -1 -1 -1 -2 -2 -1
1 2 3 3 3 3 3 3 3 2 2 2 2 2 2 3 3 3 2 2 2 1 1 1 1 1 1 1 0 -1 -1 -1 -1 -1 -1 -1 -1 -1 -1 -1 -2 -2 -2
1 1 1 2 3 3 3 3 3 3 3 2 2 2 2 2 2 1 1 1 1 1 1 1 1 1 1 1 0 -0 -1 -1 -1 -1 -1 -1 -1 -1 -1 -1 -1 -2 -4
-1 -1 -0 1 1 2 2 3 3 3 3 3 2 2 2 2 2 1 1 1 1 1 1 1 1 1 1 1 0 -0 -0 -1 -0 -1 -1 -1 -2 -1 -1 -1 -1 -3 -6
-1 -2 -2 -2 -2 -2 -1 -1 0 1 2 3 3 2 3 2 2 2 2 1 1 1 1 1 1 1 1 1 1 0 0 1 0 -0 -1 -2 -2 -1 -2 -2 -2 -3 -5
0 -1 -1 0 1 0 0 0 -1 -2 -1 -1 -0 1 1 2 2 1 1 1 1 0 1 1 1 1 1 1 1 1 1 1 1 0 0 -2 -2 -2 -2 -2 -3 -3 -4

GFSMW_850_dewp_123.txt.gz
Dewpoint
-4 -3 -4 -5 0 1 2 2 2 2 5 9 12 11 13 13 13 12 10 10 11 10 11 11 10 10 11 9 6 5 5 9 10 10 10 10 9 10 9 9 9 9 9
-3 -2 -4 -4 1 3 3 3 4 3 3 9 10 12 11 13 12 12 9 10 11 10 10 10 10 11 11 8 4 3 6 11 10 11 10 10 11 11 11 10 9 9 9
-1 -3 -4 -4 -0 -0 3 3 3 2 2 11 12 12 12 12 11 11 11 10 10 10 11 11 12 11 9 4 3 4 7 8 10 10 10 11 11 11 10 10 10 9 9
1 1 -2 0 0 1 4 3 3 5 5 11 11 12 12 12 11 11 10 9 10 10 11 12 11 9 5 3 4 6 7 9 9 12 10 10 9 9 9 10 10 9 9
1 1 2 2 3 4 4 2 4 6 7 8 11 10 11 10 10 10 11 9 10 11 12 11 9 6 5 6 6 6 9 9 11 12 11 10 9 8 9 9 9 9 7
2 2 2 2 3 4 5 8 10 9 9 6 11 11 10 10 10 10 10 11 11 11 10 9 7 7 8 8 7 8 9 9 10 11 11 9 9 9 10 10 10 8 7
3 3 3 3 3 4 8 10 9 9 8 8 11 11 9 9 10 10 10 11 11 10 10 9 10 9 8 8 8 9 9 10 10 9 8 8 10 10 10 10 9 9 7
5 5 5 5 4 7 10 10 11 10 10 7 9 11 10 9 7 8 9 9 9 8 8 9 10 8 9 10 9 9 10 10 9 6 7 9 9 10 10 10 10 8 7
5 4 5 5 5 10 10 9 9 9 8 7 7 7 11 10 9 8 6 7 8 9 8 9 11 11 10 9 9 10 10 7 6 8 9 10 9 11 11 10 9 7 7
7 5 5 6 7 10 10 10 9 7 8 8 10 9 8 10 10 9 9 9 9 8 10 11 12 10 10 10 10 10 9 8 7 7 10 8 7 9 10 10 7 6 -0
7 6 5 7 10 10 10 8 9 8 7 9 11 9 11 11 10 9 8 9 8 8 10 10 9 10 10 10 9 9 8 6 6 6 7 8 7 8 8 7 5 -1 -1
8 8 6 10 10 9 9 8 8 7 8 9 10 10 8 9 9 11 11 10 9 9 9 9 11 11 11 10 8 8 7 7 7 8 7 7 7 7 7 4 -0 -1 -1
6 8 9 10 10 9 10 10 10 10 10 10 10 9 8 7 8 9 9 10 10 11 11 11 11 11 9 8 8 8 8 7 7 6 7 7 7 7 3 -0 -1 -0 -1
5 6 7 8 10 10 10 10 10 10 10 10 9 9 9 7 9 9 9 10 9 10 11 11 10 10 9 9 9 9 8 8 8 7 7 7 7 3 0 -1 -1 -1 -1
4 5 6 8 9 9 10 10 10 10 10 10 10 9 9 8 9 10 9 10 9 9 10 9 10 10 10 10 10 8 9 8 9 10 7 7 2 0 -1 -0 -1 -0 -0
4 5 5 7 8 9 9 9 9 9 10 10 10 10 10 10 10 9 9 9 9 9 10 9 9 8 9 9 9 8 8 10 10 7 7 2 0 -1 -0 -0 -0 0 1
4 4 5 6 6 7 8 8 8 8 9 9 9 9 9 9 9 10 9 9 9 9 9 9 9 10 10 9 9 9 9 9 7 6 2 0 -0 -0 -0 0 1 0 -0
4 4 4 4 4 5 6 5 7 7 8 8 8 8 9 9 8 8 8 9 9 9 9 9 9 9 9 9 9 9 8 7 4 1 -0 -0 -0 0 1 0 0 -0 -1
4 4 4 3 3 3 4 4 4 4 7 7 8 8 8 8 8 7 8 8 7 8 8 8 9 8 8 8 8 7 6 2 0 0 -0 0 1 1 -0 -1 -1 -1 -1
3 4 3 3 3 3 2 2 2 3 3 3 3 4 6 7 8 7 7 7 7 7 7 7 7 7 7 6 7 4 3 1 0 0 1 1 0 -1 -2 -2 -2 -2 -2
3 3 3 3 3 3 2 2 2 2 2 2 2 3 3 3 3 4 4 5 6 6 6 6 5 5 4 2 1 1 0 0 0 1 1 -0 -1 -2 -2 -2 -2 -2 -2
2 2 2 3 3 3 3 2 2 2 2 2 2 2 2 2 2 3 3 3 2 2 2 3 3 3 3 2 1 1 1 1 1 1 -0 -1 -2 -1 -1 -2 -2 -2 -2
-1 0 1 2 2 2 3 3 3 3 3 3 3 2 2 2 2 2 2 1 1 2 2 2 1 1 1 1 1 1 1 1 1 0 -0 -1 -1 -1 -1 -1 -2 -2 -2
-2 -2 -2 -2 -2 -2 -2 -2 -1 0 1 1 1 2 2 2 3 2 2 2 1 1 1 1 1 1 1 1 1 1 1 1 1 0 -0 -1 -1 -1 -1 -1 -2 -2 -2
-0 -1 -1 -1 -1 -1 -2 -1 -1 -2 -2 -1 -1 -1 -1 1 2 2 2 2 2 2 2 2 1 1 1 1 1 1 1 1 1 0 0 -0 -0 -0 -1 -1 -2 -2 -2
-0 -0 -1 -0 -0 -1 -1 -2 -3 -3 -4 -4 -3 -2 -1 -1 -2 -2 -0 1 1 1 1 1 1 0 0 -0 -0 -0 -0 -0 -0 -0 -0 -0 -0 -0 -0 -0 -1 -2 -2

GFSMW_850_dewp_126.txt.gz
Dewpoint
-9 -8 -6 -5 -5 -3 -5 -5 -3 2 2 0 1 8 10 10 11 12 13 13 10 5 11 10 6 4 7 6 7 8 7 7 9 10 12 11 9 9 9 9 9 9 9
-6 -8 -7 -7 -5 -4 -4 -5 0 3 1 -0 0 3 8 10 10 10 12 12 9 8 11 11 6 7 8 9 11 8 7 7 10 10 10 10 10 10 10 10 10 10 9
-5 -6 -6 -4 -3 -3 -4 -0 3 1 2 1 2 2 6 7 11 11 11 11 10 9 11 10 8 8 10 10 10 7 5 4 9 10 9 11 11 11 11 11 10 9 9
-3 -5 -5 -1 -2 -3 -4 1 1 -0 4 2 2 3 3 6 11 10 12 11 11 11 9 10 10 7 10 10 9 6 3 4 7 10 9 10 9 10 10 10 10 10 9
-4 -2 -0 -1 -1 -3 -3 -1 -1 2 4 4 5 4 7 5 11 11 11 11 11 11 9 9 10 10 10 9 9 6 3 5 8 9 9 10 9 8 8 9 10 9 8
1 -0 0 0 1 -3 -4 1 3 3 4 6 6 7 6 8 12 12 12 12 12 11 10 10 10 10 11 11 9 4 4 7 8 9 8 10 9 9 7 8 9 10 8
3 1 1 1 2 2 2 3 4 4 4 7 8 8 6 11 11 11 12 11 11 11 11 10 11 11 11 11 6 5 8 9 9 10 11 11 9 8 8 9 9 9 7
5 4 3 2 3 2 3 4 4 5 8 9 9 9 9 11 12 12 11 11 10 10 10 10 11 11 11 8 6 9 10 10 11 11 11 9 9 9 9 10 9 9 7
5 5 5 4 3 3 4 4 5 9 10 9 8 10 9 11 11 11 11 10 10 10 9 9 11 11 9 7 9 10 10 11 11 11 8 7 9 10 10 10 10 9 7
5 5 4 3 5 4 5 7 9 10 9 9 7 6 6 8 11 10 10 10 10 10 10 11 10 9 8 9 11 11 11 11 11 10 7 8 10 10 9 10 10 9 6
6 5 4 4 4 6 8 10 9 9 9 9 7 7 6 8 9 9 10 10 10 10 10 10 9 9 9 9 11 11 11 11 9 7 8 9 10 8 6 7 8 5 5
7 5 5 6 6 9 9 9 9 9 9 10 9 9 10 10 9 9 10 10 9 9 10 8 8 8 10 9 11 11 11 10 9 8 7 10 9 7 7 6 6 4 -1
8 8 7 7 10 9 9 9 9 10 10 10 11 10 10 10 10 10 10 10 9 8 8 9 9 8 7 7 9 10 11 10 8 8 9 10 9 7 7 5 5 -0 -1
6 6 8 9 10 10 10 10 9 10 10 10 9 9 8 9 10 10 10 10 9 9 10 9 8 7 7 7 9 9 10 9 8 8 8 8 7 7 6 6 2 -0 -1
4 5 6 7 9 10 10 10 10 10 9 9 9 9 9 9 9 9 10 9 10 10 9 7 9 8 7 8 10 10 8 8 8 9 8 9 9 8 6 4 0 -1 -1
4 4 6 7 8 9 9 9 9 10 9 9 9 9 8 8 9 9 10 10 9 9 9 10 10 9 9 10 10 9 9 9 9 9 9 8 9 8 6 1 0 -0 -0
3 3 4 5 7 8 8 8 8 9 9 9 9 9 9 9 9 9 9 9 9 9 9 9 9 9 8 8 9 9 10 10 9 9 9 9 8 5 1 -0 -0 -0 0
3 4 4 4 4 5 6 7 7 7 7 8 8 8 8 8 8 8 8 8 8 9 9 9 9 9 9 9 9 9 9 9 9 8 8 8 6 1 -0 -0 0 0 0
3 3 3 3 3 3 4 4 4 4 5 7 7 7 7 7 8 7 8 7 7 7 8 8 8 9 7 8 8 8 8 7 7 7 5 3 0 0 0 0 1 -0 -1
3 3 2 2 2 2 2 1 2 2 3 3 3 3 4 5 6 7 7 7 7 7 7 7 7 7 6 6 7 6 6 5 4 2 1 1 1 0 1 1 -1 -1 -2
3 2 2 2 2 2 2 2 2 2 2 2 2 2 2 3 3 3 3 3 4 5 5 6 6 6 5 5 5 4 4 4 4 2 3 3 3 1 -0 -1 -2 -2 -2
2 2 3 3 3 3 2 2 2 2 2 2 2 2 2 2 1 1 1 2 2 2 2 2 3 3 3 4 3 2 1 1 1 1 1 1 0 -0 -1 -2 -2 -2 -2
-2 -2 -2 -1 -1 -1 -1 -0 1 1 0 -1 -0 1 2 2 2 2 2 2 2 1 1 1 1 1 1 1 1 2 2 2 3 2 2 2 -0 -1 -1 -1 -1 -1 -2
-1 -1 -1 -1 -1 -1 -1 -1 -2 -2 -2 -2 -1 -1 -1 -0 0 1 2 2 2 2 2 2 2 1 1 1 1 1 1 1 1 1 1 1 0 -0 -1 -1 -1 -1 -1
-1 -1 -0 -0 -1 -0 -1 -2 -2 -3 -3 -4 -4 -3 -2 -2 -1 -0 -0 1 1 1 1 1 1 1 1 1 1 1 1 1 1 0 -0 -0 -0 0 0 -0 -0 -0 -1
-1 -1 -0 -0 -1 -1 -1 -1 -2 -3 -3 -4 -4 -4 -3 -2 -2 -1 -2 -2 -1 -0 -0 0 0 0 0 0 -0 -0 -0 -0 -0 -0 -0 -1 -1 -1 -1 -1 -1 -1 -1

GFSMW_850_dewp_129.txt.gz
Dewpoint
-7 -7 -8 -11 -11 -9 -4 -5 -6 -7 -5 1 1 2 3 6 9 12 10 12 11 11 13 12 8 5 -0 2 5 7 8 9 9 9 10 11 11 11 10 8 8 9 9
-5 -6 -7 -8 -11 -9 -7 -6 -4 -5 -5 -3 -0 2 1 3 6 10 11 11 12 11 13 13 8 6 1 4 5 7 9 9 9 9 10 12 11 10 10 9 9 9 9
-2 -4 -5 -6 -9 -9 -8 -7 -6 -4 -5 -4 0 2 2 1 6 10 11 12 12 12 12 12 9 8 4 3 5 7 7 7 8 8 10 10 9 9 10 10 10 10 9
2 -1 -3 -4 -7 -10 -7 -5 -5 -4 -5 -4 2 1 1 2 4 9 10 10 11 12 12 11 8 8 7 5 6 7 7 7 6 10 10 9 9 10 11 11 11 10 10
2 3 -1 -4 -7 -7 -4 -1 -3 -4 -5 -2 2 0 1 3 0 4 10 10 10 10 12 11 12 10 9 5 8 8 9 8 6 6 9 10 10 10 9 10 10 10 10
2 4 0 -3 -4 -2 -1 -0 -2 -4 1 3 1 1 4 4 5 4 9 12 11 10 10 10 10 9 8 7 9 9 10 8 6 6 9 9 9 9 8 8 8 9 9
3 5 2 0 0 0 -0 0 -4 -4 1 1 1 3 4 5 5 5 6 10 10 9 10 11 11 10 11 9 10 10 10 9 5 6 10 10 9 9 9 7 8 9 9
5 5 4 2 1 1 0 2 -4 -2 -0 2 2 3 3 6 8 8 9 9 10 10 11 11 11 10 10 10 9 10 10 9 6 7 9 10 9 10 9 8 8 9 8
3 4 4 4 2 1 1 1 2 2 3 4 3 3 4 9 10 9 10 10 11 10 11 11 11 10 10 11 11 11 11 9 6 9 11 10 11 9 8 8 9 9 8
4 4 5 5 5 4 3 3 3 3 4 4 4 4 6 9 10 11 10 11 11 11 10 10 11 11 10 10 11 11 10 7 8 10 12 10 10 8 8 8 10 9 8
5 4 4 4 5 5 5 4 5 5 5 6 8 8 9 9 9 8 11 11 11 11 11 11 10 10 10 11 11 11 8 8 10 11 12 11 9 8 9 8 10 9 7
7 5 5 5 5 4 5 5 5 5 6 9 10 9 9 8 7 7 11 11 10 9 8 9 9 10 10 10 11 10 7 9 10 12 11 11 8 9 9 7 6 7 5
8 7 7 7 6 4 4 8 9 10 10 10 9 9 9 8 9 10 10 8 9 9 10 9 10 10 10 10 9 8 6 6 8 11 11 8 9 9 9 8 6 6 5
6 6 6 6 7 8 10 10 10 10 10 10 10 10 9 9 9 10 10 10 8 8 7 7 7 8 9 10 8 6 6 7 7 7 9 8 8 8 8 8 7 6 6
3 4 5 5 7 9 9 10 9 9 9 9 9 9 9 10 10 10 10 9 9 9 8 7 8 9 8 8 8 8 7 6 6 6 8 9 8 8 9 8 7 7 5
3 3 3 6 7 8 8 9 9 9 9 9 9 9 9 9 10 10 9 10 10 10 10 10 9 9 9 9 9 8 7 7 7 7 8 9 8 8 9 9 8 7 5
2 3 4 6 7 8 8 8 8 9 9 9 9 9 9 9 9 9 9 10 10 9 9 10 9 9 8 8 8 7 8 8 8 8 9 9 9 9 9 8 9 7 6
2 3 3 4 6 7 7 7 7 8 8 8 7 8 8 8 9 9 9 9 9 9 9 9 9 9 9 9 9 9 9 9 9 9 9 9 9 9 8 7 7 5 2
2 2 2 2 2 3 3 4 5 7 7 7 7 7 7 7 7 7 7 8 8 8 8 9 8 8 8 7 8 8 8 7 8 7 7 7 7 6 6 5 4 2 1
2 2 2 2 2 2 2 2 2 2 2 3 3 4 6 6 6 7 7 7 7 7 7 7 7 7 7 7 7 7 7 7 6 6 6 6 5 4 3 2 1 1 2
3 2 2 2 2 2 2 2 2 2 2 2 2 2 2 2 2 3 3 3 4 4 5 5 5 5 4 4 5 5 6 5 6 5 4 4 3 4 3 3 3 3 1
-1 -1 -1 -0 0 0 -0 1 1 1 1 1 2 2 2 2 2 2 1 1 1 1 2 2 2 2 2 2 2 3 3 3 2 3 3 2 2 2 3 3 2 0 -1
-2 -2 -2 -2 -2 -2 -2 -2 -2 -2 -2 -2 -2 -1 -1 0 1 1 2 2 2 2 1 1 1 1 1 1 1 1 1 2 2 3 2 2 2 2 1 1 0 0 0
-1 -1 -1 -1 -2 -2 -2 -3 -3 -3 -4 -4 -5 -4 -2 -2 -1 -1 -1 -1 -1 1 1 1 1 1 2 1 1 1 1 1 1 1 1 2 1 1 1 1 0 -0 0
-1 -1 -1 -1 -1 -2 -2 -1 -2 -2 -3 -4 -4 -4 -4 -3 -2 -2 -2 -2 -1 -1 -1 -1 -0 -0 -0 -0 -0 -0 0 0 0 0 0 0 1 0 0 -0 -1 -1 -1
-1 -1 -0 -0 -0 -2 -2 -2 -1 -2 -3 -3 -4 -4 -4 -4 -5 -4 -3 -2 -2 -2 -2 -2 -2 -1 -1 -1 -1 -1 -1 -1 -1 -1 -1 -1 -1 -1 -1 -1 -1 -1 -1

GFSMW_850_dewp_132.txt.gz
Dewpoint
-4 -4 -4 -6 -6 -7 -8 -11 -10 -8 -12 -11 -4 1 -0 3 10 13 12 13 12 11 11 12 12 12 9 -1 1 3 4 8 10 9 9 9 9 9 9 9 8 8 9
1 1 1 -0 -3 -6 -7 -11 -11 -6 -9 -9 -6 2 -1 -1 5 6 10 13 12 11 10 11 12 12 10 3 0 4 7 9 9 9 9 10 10 11 10 9 8 8 9
1 1 1 0 -0 -3 -6 -8 -12 -8 -5 -6 -6 1 1 0 2 2 8 10 10 10 11 11 11 12 11 7 0 5 7 7 9 9 8 10 10 11 10 9 9 8 9
2 3 2 1 0 -3 -4 -6 -12 -10 -8 -6 -4 -5 0 1 2 1 5 7 10 11 10 11 12 11 12 10 2 5 7 8 8 9 9 8 8 8 9 9 9 10 10
2 3 2 1 2 -3 -4 -7 -13 -11 -8 -6 -6 -5 -4 -2 2 0 -0 5 9 11 10 10 11 11 12 9 7 4 6 8 8 8 7 8 9 9 9 9 9 10 10
1 3 3 3 1 -4 -5 -6 -8 -9 -4 -4 -5 -4 -5 -3 2 -0 1 3 8 10 10 11 12 11 12 10 7 5 5 7 8 9 7 6 9 9 9 9 8 9 9
2 2 4 4 2 -2 -3 -4 -4 -3 -1 -4 -4 -3 -4 -4 1 -3 -0 2 7 10 12 11 12 12 11 10 7 7 6 7 9 8 8 6 8 8 9 9 8 8 8
2 2 3 4 4 2 0 0 -0 -0 -0 -3 -3 -3 -4 -2 3 1 2 3 5 6 11 11 11 11 12 10 10 10 8 8 9 10 9 7 7 9 10 9 9 8 8
2 3 3 3 4 3 3 2 1 1 -1 -3 -2 1 2 2 1 4 3 5 6 7 11 10 12 11 11 11 8 5 4 9 9 10 10 8 7 10 10 9 10 8 8
4 5 4 3 3 3 2 2 2 2 -2 -4 -2 0 0 -0 1 3 3 3 7 8 10 11 10 11 10 9 5 1 0 9 9 10 10 8 6 9 10 10 9 9 9
6 6 4 4 4 5 4 3 3 3 2 -0 -3 -1 1 3 3 3 3 4 10 9 10 10 11 11 11 11 8 9 9 11 9 10 10 8 7 10 10 9 8 8 8
7 6 6 6 6 6 6 6 5 5 4 4 4 4 4 5 4 4 7 8 8 9 10 11 10 11 11 9 7 10 9 11 10 9 9 7 9 10 9 9 8 8 8
4 6 5 4 4 4 5 4 4 4 5 5 5 6 8 6 5 7 7 9 11 11 10 11 11 11 11 11 9 10 9 10 9 9 9 7 8 10 8 9 8 8 8
3 3 5 5 5 5 5 4 3 5 4 4 4 5 7 8 9 9 9 9 10 11 11 11 10 10 11 10 10 10 8 7 6 6 6 6 7 7 7 8 8 8 8
2 3 3 4 6 5 6 7 8 9 9 8 9 9 9 9 9 10 10 10 10 10 9 9 9 9 9 9 9 8 7 5 6 6 6 6 7 7 5 7 8 8 8
1 2 3 4 4 7 7 9 9 9 8 9 9 9 8 9 9 10 10 10 10 9 9 9 9 9 6 7 8 8 8 8 8 7 7 7 7 7 7 9 8 8 8
2 3 3 4 5 6 7 7 8 9 9 9 9 9 9 9 9 9 10 10 9 9 8 9 9 8 8 8 9 9 9 9 9 8 8 8 8 7 6 7 8 9 9
2 2 3 4 5 6 7 7 7 7 7 7 7 8 8 9 9 9 9 9 9 9 9 9 10 9 9 9 9 9 9 9 9 9 9 9 9 9 9 8 9 9 9
2 2 2 2 2 2 2 3 4 5 6 6 7 7 7 7 7 7 7 7 8 8 8 9 9 8 8 8 7 7 8 8 8 8 8 8 7 7 7 6 6 6 6
3 2 2 2 2 2 2 1 2 1 2 2 2 3 4 5 5 6 6 7 7 7 7 7 7 7 7 7 7 7 7 7 6 6 6 6 6 5 5 5 5 4 4
-0 -1 -1 -1 -0 -1 -2 -1 0 1 2 2 2 1 1 1 1 2 2 2 3 3 4 4 5 5 5 4 4 4 5 5 5 5 5 5 6 4 4 4 3 3 3
-1 -1 -2 -2 -2 -2 -3 -3 -2 -2 -2 -1 -1 -1 -0 0 1 1 1 1 1 1 1 1 1 1 1 1 2 2 2 3 3 3 3 3 3 3 3 4 4 3 3
-1 -1 -1 -2 -2 -2 -3 -3 -3 -4 -4 -5 -5 -3 -2 -2 -1 -2 -2 -1 0 1 1 1 2 2 2 2 2 1 1 1 1 1 2 2 2 2 2 2 2 2 2
-1 -1 -1 -2 -2 -2 -2 -2 -3 -3 -4 -4 -5 -6 -6 -4 -4 -3 -3 -2 -2 -2 -2 -2 -1 -1 -1 -0 -0 0 0 0 0 1 1 1 1 1 1 1 0 0 1
-1 -1 -1 -1 -1 -2 -4 -4 -3 -4 -5 -5 -5 -5 -6 -5 -5 -5 -5 -4 -3 -3 -2 -2 -2 -2 -2 -1 -1 -1 -1 -1 -2 -1 -1 -0 -0 -0 -1 -1 -1 -1 -1
-1 -1 -1 -1 -1 -1 -2 -2 -2 -3 -3 -4 -5 -5 -5 -6 -6 -7 -7 -7 -7 -6 -6 -6 -6 -6 -4 -3 -2 -2 -2 -2 -2 -3 -3 -2 -2 -2 -2 -2 -2 -2 -2

GFSMW_850_dewp_135.txt.gz
Dewpoint
-0 -1 -1 -0 -0 -3 -6 -7 -8 -11 -11 -11 -13 -11 -7 -3 2 9 12 12 13 13 12 12 11 11 12 11 7 -2 2 3 7 9 9 10 9 8 7 7 9 9 8
0 1 1 1 0 -1 -1 -4 -8 -9 -13 -10 -10 -12 -10 -6 -1 3 11 12 13 13 12 12 11 10 12 12 10 -1 2 4 7 9 9 9 9 8 8 8 9 9 8
1 1 1 2 2 0 -1 -2 -5 -9 -12 -12 -9 -9 -10 -6 0 0 9 11 13 13 13 13 11 11 11 12 11 4 -0 3 6 8 9 9 10 8 8 9 9 8 8
1 1 1 0 3 1 -0 -2 -3 -7 -12 -12 -9 -7 -8 -6 3 1 2 9 8 10 12 12 12 11 11 11 12 10 -0 3 4 9 10 9 7 8 9 9 9 8 8
1 1 1 0 3 2 0 -1 -3 -4 -9 -12 -10 -5 -5 -5 -1 3 0 2 3 9 10 12 11 10 11 11 11 11 4 1 5 8 9 9 9 8 7 7 8 8 8
1 1 1 1 3 2 3 0 -3 -4 -7 -12 -10 -8 -6 -5 -5 -0 1 2 2 8 11 11 11 11 11 10 11 12 10 3 6 9 9 7 8 8 9 8 8 7 8
2 2 2 1 2 3 4 -0 -5 -6 -8 -11 -10 -9 -7 -7 -6 -6 -2 2 3 8 11 11 11 12 11 10 11 11 11 7 5 7 8 8 8 8 8 9 8 8 8
2 3 3 2 2 3 3 0 -2 -3 -7 -9 -10 -9 -7 -5 -1 -5 -5 0 2 2 7 11 10 11 11 11 10 11 12 9 4 7 6 7 8 9 8 9 9 9 8
4 5 5 3 2 2 2 1 -1 -0 -1 -3 -3 -1 -1 -2 -3 -2 -4 0 1 1 1 11 11 11 11 10 10 11 12 9 6 4 7 7 7 8 9 9 9 10 9
5 5 5 3 3 2 2 3 2 1 1 -1 0 1 -0 -2 -2 -4 -4 1 2 3 4 5 10 10 11 12 12 11 12 11 7 5 8 7 8 7 10 8 8 10 10
4 5 6 5 4 4 4 4 3 2 2 1 2 0 -0 -2 1 1 1 2 2 2 3 4 7 8 11 11 11 11 12 11 7 9 9 7 7 7 9 9 8 10 10
3 4 6 6 7 6 6 7 6 4 3 3 3 2 -1 -0 3 2 2 1 2 3 2 2 5 7 10 10 11 11 12 11 11 9 7 5 8 7 8 9 7 8 8
2 3 3 4 5 5 4 5 5 5 6 5 4 4 3 1 1 1 2 2 3 3 3 3 7 8 10 10 10 10 11 11 9 7 5 5 7 7 6 8 7 7 7
2 3 3 4 5 5 6 6 5 4 3 3 5 5 6 4 3 3 3 4 4 7 7 8 9 9 10 10 10 10 11 11 8 7 7 5 6 6 7 7 7 5 6
1 1 2 3 4 4 5 5 5 5 5 5 3 5 5 5 5 8 7 5 6 7 8 9 10 10 11 11 10 10 11 10 9 8 10 9 8 8 7 7 7 7 7
1 1 2 3 3 4 5 6 6 6 6 6 5 5 4 6 6 9 9 9 9 9 10 10 9 9 9 9 9 10 9 10 9 8 7 7 7 8 7 7 7 7 7
1 1 2 3 3 5 6 6 7 6 5 4 4 6 7 8 8 8 9 9 9 9 9 9 9 8 8 7 8 8 8 8 8 8 8 8 8 7 9 9 9 9 8
2 2 2 2 2 2 4 5 6 6 7 7 7 7 8 7 9 9 9 9 9 8 8 9 9 10 8 8 8 7 8 9 9 9 9 8 8 9 9 9 8 8 8
2 2 1 1 1 1 1 1 1 1 3 4 5 6 7 7 8 8 8 7 8 8 8 7 7 8 8 9 8 8 8 8 8 8 8 7 6 6 5 5 6 5 5
-1 -2 -2 -2 -2 -2 -2 -1 0 1 1 1 1 2 2 3 5 6 6 6 7 7 7 7 7 7 7 7 7 7 7 7 7 7 6 6 6 5 5 5 5 4 3
-1 -2 -3 -3 -3 -4 -5 -5 -4 -3 -2 -1 -1 -0 0 1 1 1 1 2 2 2 3 3 3 3 4 4 4 4 4 4 5 5 5 4 4 4 4 4 4 4 4
-1 -1 -2 -2 -2 -3 -4 -5 -5 -5 -6 -6 -4 -3 -2 -2 -1 -0 0 1 1 1 1 1 1 1 1 1 1 1 1 1 1 1 2 2 3 3 3 3 2 2 3
-1 -1 -2 -3 -4 -4 -3 -4 -4 -4 -5 -7 -7 -7 -6 -5 -4 -3 -3 -3 -3 -3 -2 -2 -2 -2 -1 -1 -1 -1 -0 -0 0 0 1 1 1 1 2 1 1 1 1
-1 -1 -1 -2 -3 -4 -5 -4 -4 -5 -6 -6 -6 -6 -6 -6 -6 -6 -6 -5 -5 -4 -4 -3 -3 -3 -3 -3 -3 -3 -2 -2 -2 -2 -2 -1 -0 0 0 0 0 -0 -0
-2 -2 -2 -2 -2 -2 -3 -3 -3 -4 -5 -6 -6 -6 -6 -7 -7 -7 -7 -7 -8 -8 -8 -9 -9 -9 -8 -7 -4 -3 -3 -3 -3 -3 -3 -3 -2 -2 -1 -1 -1 -2 -2
-1 -1 -1 -1 -1 -2 -2 -2 -3 -4 -5 -6 -6 -6 -7 -8 -9 -9 -9 -9 -10 -10 -10 -10 -10 -11 -11 -12 -11 -12 -12 -11 -4 -3 -3 -4 -4 -3 -3 -2 -2 -2 -2

GFSMW_850_dewp_138.txt.gz
Dewpoint
-1 -1 -0 0 -1 -2 -3 -6 -8 -9 -13 -15 -13 -12 -9 -8 -5 3 11 13 13 13 13 13 12 12 12 12 11 7 -1 2 8 9 9 10 9 9 9 8 7 7 8
-1 -0 0 1 2 0 -1 -3 -5 -8 -9 -11 -13 -7 -3 -4 -2 -3 2 11 13 13 13 14 13 12 11 12 12 11 6 6 7 9 9 9 10 10 9 8 6 6 8
-0 -0 -0 0 1 2 3 -0 -3 -4 -7 -8 -9 -11 -12 -5 -1 -1 -2 2 12 13 13 13 13 13 12 12 12 12 11 4 7 7 9 8 8 9 10 8 7 7 7
-0 -0 0 0 1 1 2 3 0 -2 -3 -7 -8 -6 -3 -3 -2 3 1 -2 7 13 13 13 13 13 12 12 11 12 12 9 7 6 9 9 10 10 10 9 8 7 7
1 1 1 1 2 2 2 4 1 -1 -2 -3 -8 -10 -3 -2 1 2 6 7 5 13 13 12 13 13 13 12 11 11 12 12 5 4 8 10 9 10 10 10 6 7 7
2 2 2 2 2 2 3 3 1 1 -0 -2 -5 -8 -3 -0 1 3 5 7 7 11 13 13 13 13 12 12 12 11 11 12 10 4 5 9 9 10 9 9 8 6 6
2 3 3 3 3 3 3 2 3 0 -2 -3 -4 -7 -3 1 2 3 4 5 8 8 10 9 11 12 12 11 11 11 11 12 11 10 5 7 5 7 8 9 9 9 8
3 4 5 5 4 3 3 1 1 -3 -6 -4 -4 -7 -10 -10 -1 2 3 4 5 7 8 5 11 11 12 12 11 11 11 11 11 12 9 4 2 6 8 9 9 9 9
3 4 5 5 4 4 3 2 1 -0 -2 -5 -7 -9 -12 -12 -10 -0 2 2 4 5 7 4 10 11 12 12 11 11 11 11 11 11 12 9 4 3 9 8 10 9 9
3 3 5 6 6 4 3 3 2 2 1 0 -1 -6 -10 -11 -11 -8 -0 2 2 4 6 8 8 9 11 12 11 11 11 12 11 11 12 11 7 4 6 7 9 8 9
2 3 4 5 6 6 4 3 2 3 2 2 1 0 -1 -1 -0 1 -0 2 1 2 6 8 9 9 9 11 11 11 11 11 11 11 11 12 9 7 6 9 7 8 9
2 2 3 3 5 5 6 6 6 5 3 2 3 2 1 2 2 4 -1 -2 3 5 4 8 8 9 9 9 9 9 11 11 11 11 11 11 11 7 6 6 8 8 8
2 2 2 2 3 4 6 6 6 6 6 6 6 3 2 3 3 2 1 1 1 4 5 6 7 8 8 9 8 7 8 10 11 11 11 11 11 10 6 8 9 6 6
1 2 2 2 3 4 5 5 5 5 5 5 6 5 4 3 5 1 4 5 4 5 4 5 5 3 4 6 7 7 9 9 10 11 11 10 10 10 10 9 5 7 8
1 1 1 2 4 5 4 4 4 5 5 5 4 4 5 6 6 5 4 4 4 2 1 3 4 3 6 6 8 9 9 9 10 9 10 10 10 9 8 6 5 6 8
1 1 2 3 3 4 5 4 3 4 5 6 5 5 4 3 4 4 4 6 7 6 5 5 8 8 8 9 9 10 10 10 10 10 10 9 9 9 8 9 9 8 9
0 1 2 2 2 2 3 5 3 3 4 5 5 5 5 5 4 3 3 4 7 8 7 8 8 9 10 9 9 10 9 9 8 7 6 6 6 7 8 8 7 7 7
-1 -1 -1 0 1 1 1 2 3 6 6 5 5 4 4 4 4 3 4 5 6 8 9 9 9 9 8 7 8 8 8 8 6 6 7 8 8 9 8 8 7 7 6
-2 -3 -3 -3 -3 -3 -1 -0 1 1 2 2 3 3 3 3 4 4 8 8 8 7 7 7 7 8 8 8 8 8 8 8 8 8 8 8 7 7 7 6 6 5 5
-3 -3 -4 -5 -6 -6 -6 -4 -4 -3 -1 0 1 1 2 4 5 6 6 6 6 6 6 6 7 7 7 7 7 7 7 7 7 6 6 6 6 6 5 5 5 5 5
-2 -3 -4 -4 -5 -5 -5 -7 -7 -6 -3 -3 -3 -2 -1 0 1 1 1 2 2 3 3 3 3 2 2 2 2 2 3 3 3 3 3 3 4 4 4 4 4 3 3
-2 -4 -4 -6 -5 -5 -5 -7 -7 -6 -7 -6 -5 -4 -3 -3 -2 -2 -1 -0 -0 -0 0 0 0 0 0 0 0 0 0 0 0 0 1 1 1 1 1 2 2 2 2
-2 -2 -3 -3 -5 -6 -6 -7 -7 -7 -8 -8 -8 -8 -8 -7 -6 -5 -5 -4 -4 -4 -4 -4 -4 -4 -4 -4 -4 -5 -4 -3 -3 -2 -1 -1 -1 -1 0 1 1 1 1
-2 -2 -2 -2 -3 -4 -5 -5 -6 -6 -6 -7 -7 -7 -8 -8 -7 -8 -8 -8 -8 -8 -8 -8 -8 -8 -8 -8 -8 -9 -9 -9 -7 -6 -5 -5 -4 -3 -2 -1 -1 -0 -1
-2 -2 -1 -1 -2 -3 -4 -4 -5 -6 -6 -6 -7 -7 -8 -9 -9 -10 -10 -10 -10 -10 -10 -10 -10 -11 -11 -11 -11 -11 -11 -11 -11 -9 -7 -6 -8 -7 -6 -4 -3 -2 -2
-2 -2 -1 -1 -2 -2 -4 -4 -4 -5 -6 -6 -7 -8 -9 -10 -9 -9 -10 -10 -10 -11 -11 -11 -11 -11 -11 -11 -11 -11 -11 -11 -11 -11 -10 -7 -6 -7 -8 -6 -5 -4 -4

GFSMW_850_dewp_141.txt.gz
Dewpoint
-2 -2 -1 -0 1 1 1 -1 -3 -6 -8 -9 -10 -12 -11 -9 -7 -5 5 12 13 13 14 14 13 13 13 13 12 11 8 7 7 8 9 9 10 10 10 11 11 11 8
-2 -2 -1 -0 0 1 3 2 0 -0 -4 -6 -7 -6 -6 -6 -7 -5 -4 3 13 14 14 14 13 13 13 13 12 11 9 7 6 8 9 9 9 10 10 9 10 9 9
-1 -1 -1 -1 -0 1 1 3 3 2 1 -1 -5 -5 -5 -3 -2 -2 -1 -3 -0 12 14 14 13 13 13 13 12 12 10 9 6 6 9 9 8 9 9 8 8 8 7
-0 0 0 1 1 1 1 2 3 4 3 2 -1 -5 -5 -4 -4 -2 -2 4 -1 6 11 13 13 13 13 13 13 12 11 10 9 7 6 8 8 8 9 10 10 9 9
1 1 2 3 3 3 2 2 2 3 4 3 2 -1 -3 -3 -2 -2 0 1 6 5 7 10 13 13 13 13 13 13 12 11 10 10 8 5 9 10 10 10 10 10 9
2 2 3 3 4 4 3 3 3 3 5 4 3 1 -0 -1 -1 -1 0 2 5 6 7 8 11 13 13 13 12 13 13 12 12 11 9 8 7 9 10 9 9 10 7
2 2 3 4 5 5 4 4 4 4 2 1 1 1 -0 -1 -1 -1 0 2 3 7 7 7 9 11 13 12 13 12 13 12 12 12 11 10 8 7 9 8 8 9 9
2 3 3 5 6 4 4 4 4 5 5 5 3 -1 -2 -3 -3 -1 0 2 3 5 7 7 6 10 11 12 12 12 12 12 12 12 11 11 10 7 6 9 9 9 9
3 3 3 4 5 6 4 4 4 5 5 2 0 -0 -1 -1 -4 -4 1 2 3 3 4 7 7 8 11 11 10 11 12 12 12 12 12 12 12 11 11 8 7 5 9
2 2 3 3 4 5 6 5 5 5 6 2 -1 -3 -4 -4 -4 -4 -2 -1 -0 2 3 3 7 6 7 8 11 11 12 12 12 11 12 12 12 11 11 10 9 9 9
2 2 2 3 4 5 5 6 6 6 6 6 3 3 1 -2 -3 -1 -3 -3 -5 -6 -3 0 1 7 7 7 9 10 11 11 11 11 11 11 11 11 11 11 10 10 8
1 2 2 3 4 5 5 5 7 7 7 7 6 6 5 4 2 -0 -5 -3 -0 2 3 4 1 2 5 7 8 9 10 11 12 11 11 11 11 11 11 11 11 10 9
1 2 2 2 3 4 5 5 5 6 6 7 7 6 6 6 6 3 3 3 4 6 5 5 5 6 4 6 8 10 9 11 11 11 11 10 11 11 11 10 10 10 10
1 1 2 2 2 2 2 2 4 5 5 5 6 6 6 6 6 7 6 5 5 5 4 5 5 6 4 4 6 8 8 9 9 11 11 8 9 10 9 10 9 10 10
1 2 2 2 3 2 1 3 5 5 5 6 5 6 6 6 7 7 7 6 4 3 5 4 6 6 3 3 4 4 7 8 7 8 9 9 10 9 10 10 10 10 9
-0 0 1 1 2 2 2 3 5 5 6 6 6 5 5 5 5 5 4 5 4 4 4 4 4 5 6 6 4 3 6 6 8 9 10 10 10 10 10 9 9 7 8
-1 -1 -1 -1 0 1 2 2 4 4 5 4 3 4 5 6 5 5 4 3 3 4 4 5 4 4 4 7 7 7 9 9 9 9 9 8 8 7 8 7 7 8 8
-2 -2 -2 -2 -2 -1 -0 1 3 4 4 3 1 2 4 5 5 4 4 4 3 5 6 6 7 7 8 8 8 9 9 10 9 9 8 8 8 8 8 8 8 8 8
-2 -2 -2 -3 -5 -6 -4 -2 -0 1 1 4 3 1 3 4 4 4 4 4 4 5 5 5 7 7 7 8 8 8 8 8 8 8 7 7 7 7 7 8 7 7 6
-3 -4 -4 -5 -6 -6 -7 -7 -4 -2 -1 1 1 3 4 4 3 3 3 4 4 3 3 5 6 6 7 7 7 7 7 7 7 6 6 6 6 6 6 6 6 5 5
-3 -4 -5 -7 -7 -7 -6 -8 -8 -8 -4 -2 -1 0 1 1 2 2 2 3 3 3 3 3 3 4 4 4 3 3 3 3 3 4 4 4 3 3 3 3 3 3 3
-3 -4 -5 -6 -7 -8 -8 -8 -9 -8 -8 -8 -7 -4 -3 -2 -1 -1 -0 -0 -0 -0 -1 -1 -1 -2 -2 -3 -3 -4 -4 -4 -4 -3 -3 -3 -2 -2 -1 -0 1 1 1
-3 -5 -5 -6 -7 -9 -9 -9 -9 -9 -8 -9 -9 -9 -8 -7 -6 -6 -6 -6 -5 -6 -6 -6 -6 -6 -5 -6 -6 -7 -7 -7 -6 -5 -5 -5 -5 -6 -4 -3 -2 -1 -0
-4 -4 -4 -5 -5 -6 -8 -8 -9 -10 -9 -9 -9 -10 -10 -9 -9 -9 -9 -9 -9 -9 -10 -11 -10 -11 -11 -12 -12 -12 -12 -12 -12 -11 -9 -9 -7 -8 -8 -7 -5 -5 -3
-5 -4 -4 -3 -4 -5 -7 -8 -8 -9 -9 -9 -9 -10 -11 -11 -11 -12 -12 -12 -13 -12 -12 -12 -12 -12 -12 -13 -13 -13 -13 -13 -13 -12 -12 -12 -12 -11 -11 -11 -10 -7 -5
-5 -4 -3 -3 -3 -4 -5 -7 -7 -7 -8 -8 -8 -9 -10 -10 -11 -11 -11 -12 -11 -11 -11 -11 -11 -11 -11 -12 -12 -13 -14 -15 -16 -16 -17 -17 -17 -16 -14 -13 -12 -11 -9

GFSMW_850_dewp_144.txt.gz
Dewpoint
-5 -5 -2 -2 -1 -1 -0 -0 -1 -2 -3 -5 -6 -6 -10 -15 -12 -6 -4 4 11 13 14 14 13 13 14 13 12 12 11 9 8 8 9 9 9 9 9 9 8 7 7
-2 -2 -1 -1 -1 -1 -0 0 0 1 0 -1 -4 -4 -4 -7 -13 -13 -7 -3 2 9 13 14 14 13 14 13 12 12 12 11 8 8 8 9 9 9 9 8 9 7 7
-1 -0 -0 0 0 0 0 -0 1 1 1 2 1 -2 -2 -2 -3 -7 -10 -8 -3 -2 10 13 13 13 13 13 13 12 12 11 9 7 8 9 9 8 8 8 5 4 5
0 0 1 1 2 2 2 2 1 1 1 2 3 2 -1 -3 -3 -2 -4 -7 -7 -1 5 9 12 13 13 13 13 13 12 12 10 8 7 7 6 8 8 8 8 8 7
1 1 2 2 2 3 3 3 3 3 2 2 3 3 2 -0 -3 -4 -3 -2 -2 -1 -1 4 9 11 12 13 13 13 13 12 12 9 8 7 7 8 8 9 9 9 9
1 1 2 2 3 4 5 4 4 3 3 2 2 3 3 2 -1 -1 -2 -3 -1 -1 6 3 4 9 11 13 12 12 13 12 12 11 10 9 7 6 8 10 10 10 9
1 1 2 3 3 4 5 4 4 4 3 3 3 3 4 2 1 -1 -1 -1 -1 -0 2 5 6 6 9 10 12 12 12 13 12 12 12 10 10 10 7 7 8 9 9
2 2 2 3 4 4 5 5 4 4 4 4 5 5 4 3 2 -1 -1 -2 -4 -1 -1 6 5 2 5 9 9 9 12 12 12 12 12 11 11 11 10 9 9 9 8
2 2 2 3 3 4 5 5 4 4 3 5 5 5 4 3 2 0 -1 -1 -0 1 2 5 6 4 4 6 10 9 12 11 11 12 12 12 11 11 10 10 10 10 9
1 1 2 2 3 4 5 5 5 5 4 5 5 2 1 2 1 1 -0 -1 0 1 2 1 4 6 7 6 6 8 9 9 10 11 12 12 11 11 11 11 11 10 10
2 2 1 2 2 2 3 5 6 5 5 5 5 4 1 0 -1 -1 -2 -3 -4 -1 -0 -1 -5 -1 4 7 6 7 8 9 10 9 10 11 11 11 11 11 11 11 11
2 2 2 2 2 1 2 3 4 6 7 5 5 6 5 4 2 -0 -5 -7 -9 -11 -9 -8 -6 -5 -7 -2 6 6 7 10 9 9 9 10 11 11 11 11 10 11 11
2 2 2 2 2 2 2 3 4 5 6 7 6 6 6 5 5 4 3 1 -0 -2 -1 0 1 2 2 -1 -2 -4 4 7 10 9 10 10 10 10 10 9 10 10 11
0 0 1 2 2 2 2 4 4 4 5 6 6 6 7 6 6 6 6 6 6 6 5 5 6 5 4 5 5 3 5 6 8 9 9 9 10 10 10 8 8 8 9
-1 -2 -2 -1 1 2 3 3 5 5 5 5 6 6 7 6 5 6 6 6 7 4 3 2 3 5 4 5 3 4 5 6 7 7 7 7 7 8 8 8 9 9 8
-2 -3 -3 -3 -1 -0 2 1 2 3 3 3 5 5 5 5 6 5 4 5 4 3 3 3 3 3 4 4 5 3 4 4 2 5 4 4 8 9 10 10 9 10 10
-2 -4 -4 -4 -4 -2 0 1 2 3 3 2 3 5 5 5 5 5 5 4 4 3 2 1 3 3 3 4 4 4 5 7 7 6 7 9 10 10 10 9 9 8 8
-3 -4 -5 -5 -5 -6 -3 -1 1 3 2 3 3 4 5 5 5 5 4 4 4 3 3 4 5 4 4 4 3 4 7 8 8 8 9 9 9 8 7 8 8 8 8
-3 -4 -4 -6 -7 -7 -8 -6 -3 0 2 2 3 3 4 4 4 4 4 4 4 3 2 3 5 6 6 6 7 7 8 8 8 8 8 8 8 8 8 7 7 7 6
-4 -6 -6 -7 -9 -10 -9 -10 -9 -5 -1 1 3 3 3 3 3 3 3 3 3 3 3 3 4 5 5 5 6 6 6 7 7 6 6 6 6 6 5 5 5 4 4
-4 -5 -6 -7 -9 -9 -9 -9 -9 -9 -7 -4 -0 1 2 2 3 3 3 3 4 4 3 3 3 3 2 3 3 3 4 4 4 3 2 1 1 0 0 -1 -1 -0 0
-5 -5 -6 -7 -8 -9 -9 -10 -10 -9 -8 -8 -7 -5 -3 -2 -1 -0 0 0 0 -0 -1 -2 -2 -3 -4 -5 -5 -6 -6 -6 -6 -6 -6 -7 -8 -8 -8 -7 -6 -6 -5
-4 -5 -6 -6 -8 -9 -10 -11 -11 -10 -10 -9 -9 -9 -8 -6 -5 -5 -4 -4 -5 -5 -6 -7 -8 -9 -10 -11 -11 -11 -12 -12 -12 -12 -12 -12 -12 -12 -12 -12 -12 -12 -11
-5 -5 -6 -6 -6 -7 -9 -10 -10 -11 -10 -10 -9 -9 -9 -9 -9 -9 -9 -10 -11 -12 -13 -14 -15 -15 -14 -14 -15 -14 -14 -14 -14 -14 -15 -15 -15 -15 -14 -14 -13 -13 -11
-6 -6 -6 -6 -6 -6 -7 -8 -9 -10 -10 -10 -10 -11 -11 -12 -12 -12 -13 -14 -14 -14 -14 -15 -15 -15 -16 -16 -16 -16 -15 -15 -15 -15 -15 -16 -17 -17 -17 -17 -17 -15 -15
-6 -6 -6 -6 -5 -5 -6 -6 -8 -8 -9 -10 -10 -10 -11 -11 -12 -12 -13 -13 -13 -13 -13 -13 -13 -14 -14 -13 -13 -13 -13 -13 -13 -14 -13 -13 -13 -13 -14 -14 -15 -15 -16

GFSMW_850_dewp_147.txt.gz
Dewpoint
-4 -4 -4 -1 -1 -1 -0 0 -0 -1 -1 -2 -2 -5 -6 -8 -12 -13 -7 -2 4 12 14 14 14 14 13 13 13 12 12 11 11 9 9 9 9 9 9 9 8 8 8
-0 -1 -1 -1 -1 -1 -2 -2 -1 0 0 -1 -1 -1 -3 -5 -6 -10 -13 -6 -0 6 9 13 14 14 14 13 13 13 12 12 11 9 8 9 9 8 9 9 8 7 8
-0 -1 -1 -2 -2 -2 -3 -0 1 0 1 1 0 -0 0 -1 -3 -5 -8 -12 -7 2 7 8 12 14 14 14 13 13 13 12 11 10 8 9 8 8 8 8 7 6 5
-1 -1 -2 -2 -2 -2 -1 1 2 2 2 1 2 1 1 1 -2 -4 -4 -6 -11 -10 4 6 6 11 13 13 13 13 13 13 12 11 9 8 8 8 6 6 5 4 4
0 0 -0 -0 0 1 2 2 3 3 3 3 2 2 2 1 1 -1 -3 -2 -2 -5 -7 0 4 5 10 11 12 12 13 13 13 12 11 8 8 8 7 7 6 5 5
1 1 1 1 2 2 2 3 3 4 4 4 3 3 2 2 2 2 0 -3 -3 -2 -3 -2 -0 2 5 8 10 11 12 13 13 13 12 11 9 8 8 8 9 8 6
1 1 1 2 2 3 3 3 4 4 4 3 4 4 3 2 2 2 2 0 -3 -4 -2 -2 3 2 1 4 7 10 11 12 12 12 12 12 12 10 8 7 8 9 8
1 1 1 2 2 3 3 4 4 5 4 3 3 4 3 3 3 4 4 2 -1 -2 -3 -3 -1 2 2 3 5 6 10 10 11 12 12 12 11 11 10 9 8 10 9
1 1 1 2 2 2 2 3 4 6 4 4 3 3 4 4 3 3 3 3 0 -1 -1 -1 1 2 5 4 3 5 6 10 9 10 12 12 11 11 11 10 9 9 10
2 2 2 2 1 2 2 3 4 6 5 4 4 5 5 4 4 3 3 2 1 0 0 1 1 4 6 7 6 6 5 6 8 10 10 9 11 11 11 11 10 10 10
1 1 2 2 2 2 2 2 4 5 5 4 5 6 5 1 -0 -1 0 0 -0 -0 -1 -1 0 -0 4 4 4 6 7 6 7 8 10 8 9 7 11 10 11 11 11
-0 -0 1 1 1 2 2 3 3 5 6 4 4 5 6 5 3 1 -0 -1 -1 -0 -1 1 1 -1 -7 -8 -3 1 4 6 6 7 7 8 8 9 10 10 10 10 11
-1 -2 -1 2 1 2 2 2 3 4 6 7 7 6 6 5 5 5 4 2 -1 -4 -5 -5 -5 -6 -6 -4 -2 -4 -4 0 2 5 9 8 9 8 8 10 10 11 11
-2 -3 -4 -2 1 3 3 3 3 3 4 6 7 7 6 6 6 6 6 5 4 2 1 1 1 2 2 3 2 4 3 -3 -3 1 4 8 8 7 9 10 10 10 9
-3 -4 -5 -4 -2 1 2 3 3 2 2 5 6 6 7 7 6 6 6 6 6 6 5 4 3 3 3 4 5 5 4 5 3 3 6 6 8 8 8 9 8 9 9
-3 -4 -5 -5 -5 -2 -0 2 3 2 2 4 5 5 5 6 6 5 5 5 5 5 4 4 4 4 3 2 3 4 5 4 5 5 5 7 8 9 8 7 9 10 10
-4 -4 -6 -6 -6 -5 -3 -0 3 3 3 4 5 5 5 5 5 5 5 5 5 4 3 3 2 2 2 1 1 3 4 4 4 5 5 6 5 6 6 7 8 9 9
-5 -6 -7 -7 -7 -9 -7 -4 1 3 3 4 4 4 5 5 5 5 5 5 4 4 3 3 2 3 2 3 3 2 2 3 3 4 6 6 7 7 7 8 8 8 8
-6 -7 -8 -8 -7 -8 -9 -8 -4 1 3 3 4 4 4 3 4 4 4 4 4 4 3 3 3 4 6 4 6 6 6 6 7 7 7 8 7 7 7 7 7 6 6
-6 -7 -7 -7 -8 -9 -10 -10 -10 -6 -1 3 3 2 2 3 3 3 3 3 3 3 2 3 3 4 5 5 4 6 5 6 6 6 5 6 6 6 6 6 5 5 5
-5 -6 -6 -7 -7 -9 -9 -10 -10 -10 -7 -4 -0 1 1 2 2 3 3 3 3 3 3 3 3 4 4 4 4 4 5 4 4 5 5 4 3 2 0 -2 -4 -4 -5
-5 -6 -6 -6 -6 -7 -8 -9 -10 -10 -9 -8 -7 -5 -3 -2 -1 0 1 1 1 1 -0 -0 -0 -1 -0 -1 -2 -4 -5 -4 -4 -4 -6 -9 -11 -12 -13 -12 -13 -13 -12
-5 -6 -6 -6 -6 -6 -6 -8 -9 -10 -9 -10 -10 -10 -9 -7 -6 -5 -5 -5 -5 -5 -6 -7 -8 -10 -11 -11 -12 -13 -13 -14 -14 -14 -14 -14 -14 -15 -14 -15 -14 -14 -15
-6 -6 -6 -7 -7 -6 -6 -7 -9 -10 -10 -11 -11 -12 -12 -12 -11 -10 -9 -9 -9 -10 -10 -11 -13 -13 -14 -14 -15 -15 -15 -15 -15 -15 -15 -16 -16 -17 -17 -17 -18 -18 -17
-7 -7 -7 -8 -8 -7 -7 -7 -8 -10 -11 -11 -12 -12 -12 -12 -13 -13 -13 -13 -12 -13 -12 -12 -12 -13 -14 -14 -14 -14 -15 -15 -15 -16 -16 -16 -15 -15 -15 -14 -14 -15 -15
-6 -6 -7 -7 -8 -7 -7 -7 -7 -9 -10 -11 -11 -11 -11 -12 -12 -12 -12 -12 -12 -12 -12 -12 -12 -13 -13 -13 -13 -13 -13 -13 -13 -13 -13 -14 -14 -14 -14 -15 -17 -18 -20

GFSMW_850_dewp_150.txt.gz
Dewpoint
-0 -1 -1 -1 -1 -1 -1 -1 -1 -1 -2 -2 -3 -3 -3 -4 -5 -8 -11 -12 -7 4 10 12 13 13 14 13 13 13 13 13 12 11 11 10 9 9 9 9 8 7 6
-1 -1 -1 -1 -2 -2 -2 -2 -2 -2 -3 -4 -3 -2 -2 -3 -3 -4 -7 -9 -12 -7 0 7 11 12 13 13 14 13 13 13 12 12 11 10 9 8 9 8 8 8 7
-1 -1 -2 -2 -2 -2 -2 -2 -3 -3 -3 -3 -1 -1 -0 -0 -2 -3 -4 -7 -9 -12 -7 -1 6 10 13 13 12 13 13 13 13 12 11 9 9 8 8 7 6 6 7
-1 -1 -1 -2 -1 -2 -2 -2 -1 -1 0 2 2 2 1 1 -1 -1 -2 -3 -5 -8 -10 -7 0 6 9 10 12 12 13 13 13 13 12 11 10 8 8 7 6 6 6
1 1 1 0 0 0 1 2 2 2 3 3 3 4 3 2 1 1 1 -1 -2 -4 -5 -7 -9 1 6 9 9 12 13 13 13 12 12 10 11 9 8 7 7 6 5
1 1 1 1 2 2 2 2 3 3 3 3 3 4 4 3 3 2 2 1 0 -1 -4 -3 -4 -7 -3 5 7 8 10 12 11 11 12 12 11 11 9 9 8 8 7
2 2 2 2 2 2 2 2 3 3 3 3 3 4 3 3 4 3 3 2 1 1 -1 -3 -1 -2 -3 -5 -1 4 8 9 10 10 12 12 12 12 11 11 9 9 8
2 2 2 2 2 1 1 2 2 3 4 4 4 3 3 3 4 3 3 3 2 1 1 -2 -3 -0 -1 2 2 2 3 4 6 8 11 10 12 11 11 11 10 10 9
1 1 1 2 2 2 2 2 2 3 4 5 4 3 3 3 3 3 3 2 2 2 2 -1 -2 -3 -3 -1 1 3 3 3 4 7 7 11 10 10 9 11 10 10 10
-1 -1 -0 2 2 2 2 2 2 2 4 6 4 3 3 4 5 5 4 4 3 3 3 0 -1 -1 -0 1 1 4 5 5 4 5 6 7 10 10 9 10 10 10 10
-2 -2 -2 1 2 2 2 2 2 3 4 6 5 4 5 5 4 1 1 2 3 3 2 0 0 1 2 2 4 4 5 6 6 6 6 6 7 9 10 9 9 10 10
-3 -4 -4 -3 -1 1 2 2 3 3 4 6 5 4 4 6 5 3 2 1 -1 -0 1 0 0 0 0 1 1 1 0 -0 2 3 5 5 6 8 9 9 9 8 10
-3 -5 -7 -5 -3 -1 1 2 2 2 4 6 6 5 5 5 5 5 5 4 3 0 -2 -0 -0 -0 1 2 0 -4 -6 -5 -4 -4 1 1 1 6 8 9 9 9 9
-3 -5 -7 -8 -6 -3 -1 2 2 2 4 5 6 7 6 5 6 6 6 6 5 4 2 -0 -1 -1 -2 -3 -3 -2 -1 1 1 2 -1 -0 -0 -1 8 10 9 8 10
-4 -6 -7 -9 -8 -8 -5 1 3 3 4 5 6 6 6 6 5 6 6 5 5 5 5 4 4 2 1 1 1 2 3 3 4 3 4 2 0 1 5 9 8 8 9
-4 -6 -7 -8 -8 -8 -8 -2 3 3 4 5 5 6 6 6 6 6 6 5 5 4 5 4 2 2 2 2 1 2 1 3 3 4 5 6 4 5 6 8 9 9 8
-5 -7 -8 -8 -7 -7 -8 -5 2 3 4 4 4 5 5 5 5 5 5 5 4 4 4 3 3 3 3 2 2 2 2 3 3 4 4 5 6 6 6 7 7 6 7
-5 -7 -9 -9 -10 -10 -10 -9 -2 3 3 4 4 3 4 4 4 4 5 5 5 4 4 3 3 3 2 2 2 2 3 3 4 4 4 4 4 5 5 5 6 6 6
-5 -7 -8 -9 -9 -10 -9 -10 -8 -2 2 3 4 3 3 3 3 3 4 4 4 4 4 3 3 3 4 4 4 6 5 3 4 4 5 6 7 6 7 6 7 7 6
-6 -7 -7 -8 -9 -10 -10 -11 -10 -9 -6 -1 0 1 1 2 3 3 3 3 3 3 3 3 3 4 4 4 5 5 4 6 6 6 5 6 6 6 6 6 6 5 4
-5 -6 -7 -8 -8 -8 -10 -11 -11 -11 -11 -9 -6 -3 -2 -1 0 2 3 3 3 3 3 3 3 3 3 3 3 4 5 5 4 4 4 4 4 4 4 3 2 2 1
-6 -6 -7 -7 -8 -8 -8 -10 -12 -12 -12 -12 -11 -10 -8 -5 -3 -2 -1 0 1 0 -1 -1 -1 0 1 1 0 -1 -2 -0 1 1 -0 -2 -5 -7 -10 -11 -12 -14 -14
-6 -6 -7 -8 -8 -8 -8 -8 -9 -11 -12 -12 -12 -12 -11 -10 -8 -6 -5 -4 -4 -4 -5 -6 -8 -9 -10 -10 -11 -11 -11 -11 -11 -12 -13 -14 -14 -15 -15 -16 -16 -15 -15
-7 -7 -6 -7 -9 -8 -8 -8 -8 -8 -9 -10 -11 -11 -11 -12 -11 -11 -10 -8 -8 -9 -10 -11 -13 -14 -14 -14 -15 -15 -15 -14 -14 -15 -16 -16 -17 -17 -17 -17 -17 -16 -16
-5 -6 -7 -8 -9 -7 -8 -8 -7 -7 -7 -9 -10 -11 -11 -11 -12 -12 -12 -12 -11 -11 -11 -11 -11 -13 -13 -14 -14 -14 -14 -14 -15 -15 -15 -14 -14 -14 -14 -14 -14 -15 -16
-2 -3 -4 -6 -8 -7 -7 -7 -6 -6 -6 -6 -8 -9 -10 -10 -10 -11 -11 -12 -12 -12 -12 -12 -12 -12 -12 -13 -13 -13 -12 -12 -12 -12 -12 -13 -13 -14 -15 -16 -18 -20 -21